Time,TemperatureF,DewpointF,PressureIn,WindDirection,WindDirectionDegrees,WindSpeedMPH,WindSpeedGustMPH,Humidity,HourlyPrecipIn,Conditions,Clouds,dailyrainin,SoftwareType,DateUTC
2013-03-14 00:00:00,34.6,18.3,29.71,West,271,0.0,3.0,51,0.00,,---,0.00,VWS V14.00,2013-03-14 04:00:00,
2013-03-14 00:02:00,35.9,17.6,29.71,West,271,0.0,2.0,47,0.00,,---,0.00,VWS V14.00,2013-03-14 04:02:00,
2013-03-14 00:03:00,35.9,17.6,29.71,West,271,0.0,2.0,47,0.00,,---,0.00,VWS V14.00,2013-03-14 04:03:00,
2013-03-14 00:04:00,35.9,17.6,29.71,West,271,2.0,3.0,47,0.00,,---,0.00,VWS V14.00,2013-03-14 04:04:00,
2013-03-14 00:05:00,35.9,17.6,29.71,West,271,0.0,3.0,47,0.00,,---,0.00,VWS V14.00,2013-03-14 04:05:00,
2013-03-14 00:07:00,35.8,17.6,29.71,West,271,1.0,3.0,47,0.00,,---,0.00,VWS V14.00,2013-03-14 04:07:00,
2013-03-14 00:08:00,35.8,17.6,29.71,West,271,0.0,3.0,47,0.00,,---,0.00,VWS V14.00,2013-03-14 04:08:00,
2013-03-14 00:09:00,35.8,17.6,29.71,West,271,0.0,3.0,47,0.00,,---,0.00,VWS V14.00,2013-03-14 04:09:00,
2013-03-14 00:10:00,35.8,17.6,29.71,West,271,0.0,3.0,47,0.00,,---,0.00,VWS V14.00,2013-03-14 04:10:00,
2013-03-14 00:12:00,35.8,17.6,29.71,West,271,1.0,3.0,47,0.00,,---,0.00,VWS V14.00,2013-03-14 04:12:00,
2013-03-14 00:13:00,35.6,17.4,29.71,West,271,0.0,3.0,47,0.00,,---,0.00,VWS V14.00,2013-03-14 04:13:00,
2013-03-14 00:14:00,35.6,17.9,29.71,West,271,0.0,1.0,48,0.00,,---,0.00,VWS V14.00,2013-03-14 04:14:00,
2013-03-14 00:15:00,35.6,17.9,29.71,West,271,0.0,1.0,48,0.00,,---,0.00,VWS V14.00,2013-03-14 04:15:00,
2013-03-14 00:17:00,35.5,17.3,29.71,West,271,1.0,2.0,47,0.00,,---,0.00,VWS V14.00,2013-03-14 04:17:00,
2013-03-14 00:18:00,35.5,17.8,29.71,West,271,0.0,2.0,48,0.00,,---,0.00,VWS V14.00,2013-03-14 04:18:00,
2013-03-14 00:20:00,35.5,17.8,29.71,West,271,0.0,2.0,48,0.00,,---,0.00,VWS V14.00,2013-03-14 04:20:00,
2013-03-14 00:23:00,35.3,17.6,29.71,West,271,1.0,2.0,48,0.00,,---,0.00,VWS V14.00,2013-03-14 04:23:00,
2013-03-14 00:25:00,35.3,17.6,29.71,West,271,1.0,2.0,48,0.00,,---,0.00,VWS V14.00,2013-03-14 04:25:00,
2013-03-14 00:28:00,35.2,17.5,29.71,West,271,0.0,2.0,48,0.00,,---,0.00,VWS V14.00,2013-03-14 04:28:00,
2013-03-14 00:29:00,35.2,17.5,29.71,West,271,0.0,2.0,48,0.00,,---,0.00,VWS V14.00,2013-03-14 04:29:00,
2013-03-14 00:30:00,35.2,17.5,29.71,West,271,0.0,0.0,48,0.00,,---,0.00,VWS V14.00,2013-03-14 04:30:00,
2013-03-14 00:33:00,35.0,17.3,29.71,West,271,0.0,2.0,48,0.00,,---,0.00,VWS V14.00,2013-03-14 04:33:00,
2013-03-14 00:34:00,35.0,17.3,29.71,West,271,1.0,2.0,48,0.00,,---,0.00,VWS V14.00,2013-03-14 04:34:00,
2013-03-14 00:35:00,35.0,17.3,29.71,West,271,1.0,2.0,48,0.00,,---,0.00,VWS V14.00,2013-03-14 04:35:00,
2013-03-14 00:36:00,35.0,17.3,29.71,West,271,0.0,2.0,48,0.00,,---,0.00,VWS V14.00,2013-03-14 04:36:00,
2013-03-14 00:38:00,35.0,17.8,29.71,West,270,1.0,2.0,49,0.00,,---,0.00,VWS V14.00,2013-03-14 04:38:00,
2013-03-14 00:39:00,35.0,17.8,29.71,West,271,1.0,3.0,49,0.00,,---,0.00,VWS V14.00,2013-03-14 04:39:00,
2013-03-14 00:40:00,34.9,17.7,29.71,West,271,2.0,3.0,49,0.00,,---,0.00,VWS V14.00,2013-03-14 04:40:00,
2013-03-14 00:41:00,34.9,17.7,29.71,West,271,0.0,3.0,49,0.00,,---,0.00,VWS V14.00,2013-03-14 04:41:00,
2013-03-14 00:44:00,34.9,17.7,29.71,West,271,1.0,3.0,49,0.00,,---,0.00,VWS V14.00,2013-03-14 04:44:00,
2013-03-14 00:45:00,34.9,17.7,29.71,West,271,0.0,1.0,49,0.00,,---,0.00,VWS V14.00,2013-03-14 04:45:00,
2013-03-14 00:47:00,34.7,18.0,29.71,West,271,0.0,1.0,50,0.00,,---,0.00,VWS V14.00,2013-03-14 04:47:00,
2013-03-14 00:49:00,34.7,18.0,29.71,West,271,0.0,2.0,50,0.00,,---,0.00,VWS V14.00,2013-03-14 04:49:00,
2013-03-14 00:50:00,34.7,18.0,29.71,West,271,0.0,2.0,50,0.00,,---,0.00,VWS V14.00,2013-03-14 04:50:00,
2013-03-14 00:52:00,34.7,18.4,29.71,West,271,0.0,2.0,51,0.00,,---,0.00,VWS V14.00,2013-03-14 04:52:00,
2013-03-14 00:54:00,34.6,18.3,29.71,West,271,0.0,2.0,51,0.00,,---,0.00,VWS V14.00,2013-03-14 04:54:00,
2013-03-14 00:55:00,34.6,18.3,29.71,West,271,1.0,3.0,51,0.00,,---,0.00,VWS V14.00,2013-03-14 04:55:00,
2013-03-14 00:57:00,34.6,18.3,29.71,West,271,1.0,3.0,51,0.00,,---,0.00,VWS V14.00,2013-03-14 04:57:00,
2013-03-14 00:59:00,34.6,18.3,29.71,West,271,0.0,3.0,51,0.00,,---,0.00,VWS V14.00,2013-03-14 04:59:00,
2013-03-14 01:00:00,34.7,18.4,29.71,West,271,1.0,2.0,51,0.00,,---,0.00,VWS V14.00,2013-03-14 05:00:00,
2013-03-14 01:03:00,34.7,18.4,29.71,West,269,2.0,5.0,51,0.00,,---,0.00,VWS V14.00,2013-03-14 05:03:00,
2013-03-14 01:04:00,34.9,18.6,29.71,West,268,0.0,5.0,51,0.00,,---,0.00,VWS V14.00,2013-03-14 05:04:00,
2013-03-14 01:05:00,34.9,18.6,29.71,West,268,0.0,5.0,51,0.00,,---,0.00,VWS V14.00,2013-03-14 05:05:00,
2013-03-14 01:08:00,34.9,18.6,29.71,West,264,0.0,5.0,51,0.00,,---,0.00,VWS V14.00,2013-03-14 05:08:00,
2013-03-14 01:10:00,35.0,18.7,29.71,West,264,0.0,5.0,51,0.00,,---,0.00,VWS V14.00,2013-03-14 05:10:00,
2013-03-14 01:13:00,35.0,18.7,29.71,West,264,0.0,5.0,51,0.00,,---,0.00,VWS V14.00,2013-03-14 05:13:00,
2013-03-14 01:15:00,35.0,18.7,29.70,West,268,1.0,2.0,51,0.00,,---,0.00,VWS V14.00,2013-03-14 05:15:00,
2013-03-14 01:18:00,35.0,18.7,29.70,North,349,0.0,3.0,51,0.00,,---,0.00,VWS V14.00,2013-03-14 05:18:00,
2013-03-14 01:20:00,35.0,18.7,29.70,NNW,347,0.0,3.0,51,0.00,,---,0.00,VWS V14.00,2013-03-14 05:20:00,
2013-03-14 01:23:00,35.0,19.2,29.70,NNW,346,0.0,3.0,52,0.00,,---,0.00,VWS V14.00,2013-03-14 05:23:00,
2013-03-14 01:25:00,34.9,19.1,29.70,NNW,347,1.0,3.0,52,0.00,,---,0.00,VWS V14.00,2013-03-14 05:25:00,
2013-03-14 01:28:00,34.9,19.1,29.70,NNW,346,0.0,3.0,52,0.00,,---,0.00,VWS V14.00,2013-03-14 05:28:00,
2013-03-14 01:30:00,34.9,19.1,29.70,NNW,347,0.0,0.0,52,0.00,,---,0.00,VWS V14.00,2013-03-14 05:30:00,
2013-03-14 01:33:00,34.7,18.9,29.70,West,281,2.0,4.0,52,0.00,,---,0.00,VWS V14.00,2013-03-14 05:33:00,
2013-03-14 01:35:00,34.7,18.9,29.70,West,281,3.0,4.0,52,0.00,,---,0.00,VWS V14.00,2013-03-14 05:35:00,
2013-03-14 01:36:00,34.7,18.9,29.70,West,280,0.0,4.0,52,0.00,,---,0.00,VWS V14.00,2013-03-14 05:36:00,
2013-03-14 01:38:00,34.7,19.3,29.70,West,280,0.0,4.0,53,0.00,,---,0.00,VWS V14.00,2013-03-14 05:38:00,
2013-03-14 01:40:00,34.7,19.3,29.70,WSW,237,3.0,4.0,53,0.00,,---,0.00,VWS V14.00,2013-03-14 05:40:00,
2013-03-14 01:41:00,34.7,19.3,29.70,WSW,240,1.0,4.0,53,0.00,,---,0.00,VWS V14.00,2013-03-14 05:41:00,
2013-03-14 01:44:00,34.7,19.3,29.70,West,266,2.0,6.0,53,0.00,,---,0.00,VWS V14.00,2013-03-14 05:44:00,
2013-03-14 01:45:00,34.7,19.3,29.70,West,266,0.0,1.0,53,0.00,,---,0.00,VWS V14.00,2013-03-14 05:45:00,
2013-03-14 01:46:00,34.7,19.3,29.70,West,266,0.0,2.0,53,0.00,,---,0.00,VWS V14.00,2013-03-14 05:46:00,
2013-03-14 01:47:00,34.7,19.3,29.70,West,266,2.0,2.0,53,0.00,,---,0.00,VWS V14.00,2013-03-14 05:47:00,
2013-03-14 01:49:00,34.7,19.3,29.70,NNW,339,0.0,6.0,53,0.00,,---,0.00,VWS V14.00,2013-03-14 05:49:00,
2013-03-14 01:50:00,34.7,19.3,29.70,West,273,3.0,6.0,53,0.00,,---,0.00,VWS V14.00,2013-03-14 05:50:00,
2013-03-14 01:51:00,34.9,19.5,29.70,WSW,253,1.0,6.0,53,0.00,,---,0.00,VWS V14.00,2013-03-14 05:51:00,
2013-03-14 01:52:00,34.9,19.5,29.70,WSW,253,0.0,6.0,53,0.00,,---,0.00,VWS V14.00,2013-03-14 05:52:00,
2013-03-14 01:54:00,34.9,19.5,29.70,NNW,335,0.0,6.0,53,0.00,,---,0.00,VWS V14.00,2013-03-14 05:54:00,
2013-03-14 01:55:00,34.9,19.5,29.70,NNW,335,0.0,6.0,53,0.00,,---,0.00,VWS V14.00,2013-03-14 05:55:00,
2013-03-14 01:56:00,34.9,19.5,29.70,NNW,335,0.0,6.0,53,0.00,,---,0.00,VWS V14.00,2013-03-14 05:56:00,
2013-03-14 01:57:00,34.9,19.5,29.70,NNW,345,3.0,6.0,53,0.00,,---,0.00,VWS V14.00,2013-03-14 05:57:00,
2013-03-14 01:59:00,34.9,19.5,29.70,NNW,340,1.0,6.0,53,0.00,,---,0.00,VWS V14.00,2013-03-14 05:59:00,
2013-03-14 02:00:00,34.9,19.5,29.70,NNW,343,0.0,3.0,53,0.00,,---,0.00,VWS V14.00,2013-03-14 06:00:00,
2013-03-14 02:01:00,34.9,19.5,29.70,NNW,343,0.0,3.0,53,0.00,,---,0.00,VWS V14.00,2013-03-14 06:01:00,
2013-03-14 02:03:00,34.9,19.5,29.70,NNW,342,0.0,3.0,53,0.00,,---,0.00,VWS V14.00,2013-03-14 06:03:00,
2013-03-14 02:04:00,34.9,20.0,29.70,NNW,342,0.0,3.0,54,0.00,,---,0.00,VWS V14.00,2013-03-14 06:04:00,
2013-03-14 02:05:00,34.9,20.0,29.70,NNW,342,0.0,3.0,54,0.00,,---,0.00,VWS V14.00,2013-03-14 06:05:00,
2013-03-14 02:07:00,34.9,20.0,29.70,NNW,342,1.0,3.0,54,0.00,,---,0.00,VWS V14.00,2013-03-14 06:07:00,
2013-03-14 02:08:00,34.9,20.0,29.70,NW,322,0.0,3.0,54,0.00,,---,0.00,VWS V14.00,2013-03-14 06:08:00,
2013-03-14 02:09:00,34.9,20.0,29.70,WNW,286,2.0,3.0,54,0.00,,---,0.00,VWS V14.00,2013-03-14 06:09:00,
2013-03-14 02:10:00,34.9,20.0,29.70,West,274,2.0,3.0,54,0.00,,---,0.00,VWS V14.00,2013-03-14 06:10:00,
2013-03-14 02:13:00,34.9,20.0,29.70,West,279,0.0,3.0,54,0.00,,---,0.00,VWS V14.00,2013-03-14 06:13:00,
2013-03-14 02:14:00,34.7,20.2,29.70,WSW,257,1.0,1.0,55,0.00,,---,0.00,VWS V14.00,2013-03-14 06:14:00,
2013-03-14 02:15:00,34.7,20.2,29.70,WSW,257,0.0,3.0,55,0.00,,---,0.00,VWS V14.00,2013-03-14 06:15:00,
2013-03-14 02:18:00,34.7,20.2,29.70,WSW,257,0.0,4.0,55,0.00,,---,0.00,VWS V14.00,2013-03-14 06:18:00,
2013-03-14 02:20:00,34.6,20.1,29.70,WSW,255,2.0,4.0,55,0.00,,---,0.00,VWS V14.00,2013-03-14 06:20:00,
2013-03-14 02:23:00,34.4,20.3,29.70,WSW,255,0.0,4.0,56,0.00,,---,0.00,VWS V14.00,2013-03-14 06:23:00,
2013-03-14 02:24:00,34.4,20.3,29.70,WSW,255,1.0,4.0,56,0.00,,---,0.00,VWS V14.00,2013-03-14 06:24:00,
2013-03-14 02:25:00,34.4,20.3,29.70,West,272,0.0,5.0,56,0.00,,---,0.00,VWS V14.00,2013-03-14 06:25:00,
2013-03-14 02:28:00,34.3,20.2,29.70,West,264,1.0,5.0,56,0.00,,---,0.00,VWS V14.00,2013-03-14 06:28:00,
2013-03-14 02:29:00,34.1,20.1,29.70,West,280,2.0,5.0,56,0.00,,---,0.00,VWS V14.00,2013-03-14 06:29:00,
2013-03-14 02:30:00,34.1,20.1,29.70,West,280,0.0,2.0,56,0.00,,---,0.00,VWS V14.00,2013-03-14 06:30:00,
2013-03-14 02:31:00,34.1,20.5,29.70,West,280,1.0,2.0,57,0.00,,---,0.00,VWS V14.00,2013-03-14 06:31:00,
2013-03-14 02:33:00,34.0,20.4,29.70,West,272,0.0,3.0,57,0.00,,---,0.00,VWS V14.00,2013-03-14 06:33:00,
2013-03-14 02:34:00,34.0,20.4,29.70,West,271,2.0,3.0,57,0.00,,---,0.00,VWS V14.00,2013-03-14 06:34:00,
2013-03-14 02:35:00,34.0,20.4,29.70,West,271,1.0,3.0,57,0.00,,---,0.00,VWS V14.00,2013-03-14 06:35:00,
2013-03-14 02:36:00,34.0,20.4,29.70,West,262,2.0,3.0,57,0.00,,---,0.00,VWS V14.00,2013-03-14 06:36:00,
2013-03-14 02:38:00,33.8,20.6,29.70,West,262,0.0,3.0,58,0.00,,---,0.00,VWS V14.00,2013-03-14 06:38:00,
2013-03-14 02:39:00,33.8,20.6,29.70,West,262,0.0,3.0,58,0.00,,---,0.00,VWS V14.00,2013-03-14 06:39:00,
2013-03-14 02:40:00,33.8,20.6,29.70,West,262,0.0,3.0,58,0.00,,---,0.00,VWS V14.00,2013-03-14 06:40:00,
2013-03-14 02:41:00,33.7,20.5,29.70,West,262,0.0,3.0,58,0.00,,---,0.00,VWS V14.00,2013-03-14 06:41:00,
2013-03-14 02:43:00,33.7,20.5,29.70,South,186,1.0,3.0,58,0.00,,---,0.00,VWS V14.00,2013-03-14 06:43:00,
2013-03-14 02:45:00,33.7,20.9,29.70,South,186,1.0,1.0,59,0.00,,---,0.00,VWS V14.00,2013-03-14 06:45:00,
2013-03-14 02:47:00,33.5,20.7,29.70,South,186,0.0,2.0,59,0.00,,---,0.00,VWS V14.00,2013-03-14 06:47:00,
2013-03-14 02:48:00,33.5,20.7,29.70,South,186,0.0,2.0,59,0.00,,---,0.00,VWS V14.00,2013-03-14 06:48:00,
2013-03-14 02:50:00,33.5,20.7,29.70,WSW,252,0.0,3.0,59,0.00,,---,0.00,VWS V14.00,2013-03-14 06:50:00,
2013-03-14 02:52:00,33.4,20.6,29.70,WSW,255,1.0,3.0,59,0.00,,---,0.00,VWS V14.00,2013-03-14 06:52:00,
2013-03-14 02:53:00,33.4,20.6,29.70,WSW,255,2.0,3.0,59,0.00,,---,0.00,VWS V14.00,2013-03-14 06:53:00,
2013-03-14 02:55:00,33.4,20.6,29.70,WSW,255,1.0,3.0,59,0.00,,---,0.00,VWS V14.00,2013-03-14 06:55:00,
2013-03-14 02:57:00,33.4,21.0,29.70,WSW,257,1.0,4.0,60,0.00,,---,0.00,VWS V14.00,2013-03-14 06:57:00,
2013-03-14 02:58:00,33.4,21.0,29.70,WSW,257,0.0,4.0,60,0.00,,---,0.00,VWS V14.00,2013-03-14 06:58:00,
2013-03-14 03:00:00,33.4,21.0,29.70,WSW,257,2.0,2.0,60,0.00,,---,0.00,VWS V14.00,2013-03-14 07:00:00,
2013-03-14 03:02:00,33.4,21.0,29.70,WSW,257,2.0,2.0,60,0.00,,---,0.00,VWS V14.00,2013-03-14 07:02:00,
2013-03-14 03:04:00,33.4,21.0,29.70,West,261,4.0,4.0,60,0.00,,---,0.00,VWS V14.00,2013-03-14 07:04:00,
2013-03-14 03:05:00,33.5,21.1,29.70,West,261,0.0,4.0,60,0.00,,---,0.00,VWS V14.00,2013-03-14 07:05:00,
2013-03-14 03:07:00,33.5,21.1,29.70,West,261,1.0,4.0,60,0.00,,---,0.00,VWS V14.00,2013-03-14 07:07:00,
2013-03-14 03:09:00,33.5,21.1,29.70,West,261,0.0,4.0,60,0.00,,---,0.00,VWS V14.00,2013-03-14 07:09:00,
2013-03-14 03:10:00,33.5,21.1,29.70,West,261,1.0,4.0,60,0.00,,---,0.00,VWS V14.00,2013-03-14 07:10:00,
2013-03-14 03:13:00,33.5,21.5,29.70,West,261,1.0,4.0,61,0.00,,---,0.00,VWS V14.00,2013-03-14 07:13:00,
2013-03-14 03:14:00,33.5,21.5,29.70,West,261,2.0,4.0,61,0.00,,---,0.00,VWS V14.00,2013-03-14 07:14:00,
2013-03-14 03:15:00,33.5,21.5,29.70,West,261,0.0,1.0,61,0.00,,---,0.00,VWS V14.00,2013-03-14 07:15:00,
2013-03-14 03:18:00,33.4,21.4,29.70,West,261,0.0,2.0,61,0.00,,---,0.00,VWS V14.00,2013-03-14 07:18:00,
2013-03-14 03:19:00,33.4,21.4,29.70,West,263,2.0,3.0,61,0.00,,---,0.00,VWS V14.00,2013-03-14 07:19:00,
2013-03-14 03:21:00,33.4,21.4,29.70,West,263,2.0,3.0,61,0.00,,---,0.00,VWS V14.00,2013-03-14 07:21:00,
2013-03-14 03:23:00,33.4,21.8,29.70,West,264,0.0,3.0,62,0.00,,---,0.00,VWS V14.00,2013-03-14 07:23:00,
2013-03-14 03:24:00,33.4,21.8,29.70,West,264,1.0,3.0,62,0.00,,---,0.00,VWS V14.00,2013-03-14 07:24:00,
2013-03-14 03:26:00,33.4,21.8,29.70,West,264,0.0,3.0,62,0.00,,---,0.00,VWS V14.00,2013-03-14 07:26:00,
2013-03-14 03:28:00,33.4,21.8,29.70,West,264,0.0,3.0,62,0.00,,---,0.00,VWS V14.00,2013-03-14 07:28:00,
2013-03-14 03:29:00,33.2,21.6,29.69,West,264,1.0,2.0,62,0.00,,---,0.00,VWS V14.00,2013-03-14 07:29:00,
2013-03-14 03:30:00,32.5,21.3,29.68,West,274,0.0,2.0,63,0.00,,---,0.00,VWS V14.00,2013-03-14 07:30:00,
2013-03-14 03:31:00,33.2,21.6,29.69,West,264,0.0,2.0,62,0.00,,---,0.00,VWS V14.00,2013-03-14 07:31:00,
2013-03-14 03:33:00,33.2,21.6,29.69,West,264,2.0,2.0,62,0.00,,---,0.00,VWS V14.00,2013-03-14 07:33:00,
2013-03-14 03:34:00,33.2,21.6,29.69,West,263,1.0,3.0,62,0.00,,---,0.00,VWS V14.00,2013-03-14 07:34:00,
2013-03-14 03:36:00,33.2,21.6,29.69,West,263,1.0,3.0,62,0.00,,---,0.00,VWS V14.00,2013-03-14 07:36:00,
2013-03-14 03:38:00,33.1,21.5,29.69,West,263,0.0,3.0,62,0.00,,---,0.00,VWS V14.00,2013-03-14 07:38:00,
2013-03-14 03:39:00,33.1,21.5,29.69,West,263,2.0,3.0,62,0.00,,---,0.00,VWS V14.00,2013-03-14 07:39:00,
2013-03-14 03:41:00,33.1,21.5,29.69,WSW,257,0.0,3.0,62,0.00,,---,0.00,VWS V14.00,2013-03-14 07:41:00,
2013-03-14 03:42:00,33.1,21.5,29.69,WSW,257,2.0,3.0,62,0.00,,---,0.00,VWS V14.00,2013-03-14 07:42:00,
2013-03-14 03:43:00,33.1,21.5,29.69,WSW,245,3.0,3.0,62,0.00,,---,0.00,VWS V14.00,2013-03-14 07:43:00,
2013-03-14 03:44:00,33.1,21.5,29.69,West,269,1.0,3.0,62,0.00,,---,0.00,VWS V14.00,2013-03-14 07:44:00,
2013-03-14 03:45:00,32.2,21.0,29.68,West,273,0.0,2.0,63,0.00,,---,0.00,VWS V14.00,2013-03-14 07:45:00,
2013-03-14 03:47:00,33.1,21.5,29.69,West,269,1.0,3.0,62,0.00,,---,0.00,VWS V14.00,2013-03-14 07:47:00,
2013-03-14 03:48:00,33.1,21.5,29.69,West,259,4.0,4.0,62,0.00,,---,0.00,VWS V14.00,2013-03-14 07:48:00,
2013-03-14 03:49:00,33.1,21.5,29.69,West,259,1.0,4.0,62,0.00,,---,0.00,VWS V14.00,2013-03-14 07:49:00,
2013-03-14 03:52:00,33.1,21.9,29.69,West,259,0.0,4.0,63,0.00,,---,0.00,VWS V14.00,2013-03-14 07:52:00,
2013-03-14 03:53:00,33.1,21.5,29.69,West,259,0.0,4.0,62,0.00,,---,0.00,VWS V14.00,2013-03-14 07:53:00,
2013-03-14 03:54:00,33.1,21.9,29.69,West,259,1.0,4.0,63,0.00,,---,0.00,VWS V14.00,2013-03-14 07:54:00,
2013-03-14 03:57:00,33.1,21.9,29.69,West,272,2.0,5.0,63,0.00,,---,0.00,VWS V14.00,2013-03-14 07:57:00,
2013-03-14 03:58:00,32.9,21.7,29.69,West,271,0.0,5.0,63,0.00,,---,0.00,VWS V14.00,2013-03-14 07:58:00,
2013-03-14 03:59:00,32.9,21.7,29.69,West,271,0.0,2.0,63,0.00,,---,0.00,VWS V14.00,2013-03-14 07:59:00,
2013-03-14 04:00:00,31.8,21.0,29.68,West,274,0.0,2.0,64,0.00,,---,0.00,VWS V14.00,2013-03-14 08:00:00,
2013-03-14 04:02:00,32.9,21.7,29.69,West,271,1.0,2.0,63,0.00,,---,0.00,VWS V14.00,2013-03-14 08:02:00,
2013-03-14 04:03:00,32.9,21.7,29.69,West,271,1.0,2.0,63,0.00,,---,0.00,VWS V14.00,2013-03-14 08:03:00,
2013-03-14 04:05:00,32.9,21.7,29.69,West,271,0.0,2.0,63,0.00,,---,0.00,VWS V14.00,2013-03-14 08:05:00,
2013-03-14 04:07:00,32.9,21.7,29.69,West,271,1.0,2.0,63,0.00,,---,0.00,VWS V14.00,2013-03-14 08:07:00,
2013-03-14 04:08:00,32.8,21.6,29.69,West,271,0.0,2.0,63,0.00,,---,0.00,VWS V14.00,2013-03-14 08:08:00,
2013-03-14 04:10:00,32.8,21.6,29.69,West,271,2.0,2.0,63,0.00,,---,0.00,VWS V14.00,2013-03-14 08:10:00,
2013-03-14 04:12:00,32.8,21.6,29.69,West,272,0.0,3.0,63,0.00,,---,0.00,VWS V14.00,2013-03-14 08:12:00,
2013-03-14 04:13:00,32.8,21.6,29.69,West,272,0.0,3.0,63,0.00,,---,0.00,VWS V14.00,2013-03-14 08:13:00,
2013-03-14 04:15:00,32.7,21.5,29.69,West,271,0.0,0.0,63,0.00,,---,0.00,VWS V14.00,2013-03-14 08:15:00,
2013-03-14 04:17:00,32.7,21.5,29.69,West,272,0.0,1.0,63,0.00,,---,0.00,VWS V14.00,2013-03-14 08:17:00,
2013-03-14 04:18:00,32.7,21.5,29.69,West,271,0.0,1.0,63,0.00,,---,0.00,VWS V14.00,2013-03-14 08:18:00,
2013-03-14 04:20:00,32.5,21.3,29.69,West,271,0.0,2.0,63,0.00,,---,0.00,VWS V14.00,2013-03-14 08:20:00,
2013-03-14 04:22:00,32.5,21.3,29.69,West,271,0.0,2.0,63,0.00,,---,0.00,VWS V14.00,2013-03-14 08:22:00,
2013-03-14 04:23:00,32.5,21.3,29.69,West,271,0.0,2.0,63,0.00,,---,0.00,VWS V14.00,2013-03-14 08:23:00,
2013-03-14 04:25:00,32.5,21.3,29.69,West,271,1.0,2.0,63,0.00,,---,0.00,VWS V14.00,2013-03-14 08:25:00,
2013-03-14 04:27:00,32.5,21.3,29.69,West,274,0.0,2.0,63,0.00,,---,0.00,VWS V14.00,2013-03-14 08:27:00,
2013-03-14 04:28:00,32.5,21.7,29.68,West,274,0.0,2.0,64,0.00,,---,0.00,VWS V14.00,2013-03-14 08:28:00,
2013-03-14 04:29:00,32.5,21.7,29.68,West,274,0.0,2.0,64,0.00,,---,0.00,VWS V14.00,2013-03-14 08:29:00,
2013-03-14 04:30:00,32.5,21.3,29.68,West,274,0.0,0.0,63,0.00,,---,0.00,VWS V14.00,2013-03-14 08:30:00,
2013-03-14 04:32:00,32.4,21.6,29.68,West,273,0.0,1.0,64,0.00,,---,0.00,VWS V14.00,2013-03-14 08:32:00,
2013-03-14 04:33:00,32.4,21.2,29.68,West,274,0.0,1.0,63,0.00,,---,0.00,VWS V14.00,2013-03-14 08:33:00,
2013-03-14 04:34:00,32.4,21.2,29.68,West,273,0.0,1.0,63,0.00,,---,0.00,VWS V14.00,2013-03-14 08:34:00,
2013-03-14 04:35:00,32.4,21.6,29.68,West,273,0.0,2.0,64,0.00,,---,0.00,VWS V14.00,2013-03-14 08:35:00,
2013-03-14 04:38:00,32.4,21.6,29.68,West,274,0.0,2.0,64,0.00,,---,0.00,VWS V14.00,2013-03-14 08:38:00,
2013-03-14 04:39:00,32.4,21.6,29.68,West,274,0.0,2.0,64,0.00,,---,0.00,VWS V14.00,2013-03-14 08:39:00,
2013-03-14 04:40:00,32.2,21.4,29.68,West,273,0.0,2.0,64,0.00,,---,0.00,VWS V14.00,2013-03-14 08:40:00,
2013-03-14 04:43:00,32.2,21.4,29.68,West,273,0.0,2.0,64,0.00,,---,0.00,VWS V14.00,2013-03-14 08:43:00,
2013-03-14 04:44:00,32.2,21.0,29.68,West,273,0.0,2.0,63,0.00,,---,0.00,VWS V14.00,2013-03-14 08:44:00,
2013-03-14 04:45:00,32.1,20.9,29.68,West,274,0.0,0.0,63,0.00,,---,0.00,VWS V14.00,2013-03-14 08:45:00,
2013-03-14 04:48:00,32.1,21.3,29.68,West,274,0.0,2.0,64,0.00,,---,0.00,VWS V14.00,2013-03-14 08:48:00,
2013-03-14 04:49:00,32.1,21.3,29.68,West,274,0.0,2.0,64,0.00,,---,0.00,VWS V14.00,2013-03-14 08:49:00,
2013-03-14 04:50:00,32.1,21.3,29.68,West,274,0.0,2.0,64,0.00,,---,0.00,VWS V14.00,2013-03-14 08:50:00,
2013-03-14 04:53:00,31.9,21.1,29.68,West,274,0.0,2.0,64,0.00,,---,0.00,VWS V14.00,2013-03-14 08:53:00,
2013-03-14 04:54:00,31.9,21.1,29.68,West,273,0.0,2.0,64,0.00,,---,0.00,VWS V14.00,2013-03-14 08:54:00,
2013-03-14 04:55:00,31.9,21.1,29.68,West,273,0.0,2.0,64,0.00,,---,0.00,VWS V14.00,2013-03-14 08:55:00,
2013-03-14 04:59:00,31.8,21.0,29.68,West,273,0.0,2.0,64,0.00,,---,0.00,VWS V14.00,2013-03-14 08:59:00,
2013-03-14 05:00:00,31.8,21.0,29.68,West,274,0.0,0.0,64,0.00,,---,0.00,VWS V14.00,2013-03-14 09:00:00,
2013-03-14 05:04:00,31.6,20.8,29.68,West,274,0.0,1.0,64,0.00,,---,0.00,VWS V14.00,2013-03-14 09:04:00,
2013-03-14 05:05:00,31.6,20.8,29.68,West,274,0.0,1.0,64,0.00,,---,0.00,VWS V14.00,2013-03-14 09:05:00,
2013-03-14 05:06:00,31.5,20.7,29.68,West,274,0.0,1.0,64,0.00,,---,0.00,VWS V14.00,2013-03-14 09:06:00,
2013-03-14 05:09:00,31.5,20.7,29.68,West,274,0.0,1.0,64,0.00,,---,0.00,VWS V14.00,2013-03-14 09:09:00,
2013-03-14 05:10:00,31.3,20.5,29.68,West,273,0.0,1.0,64,0.00,,---,0.00,VWS V14.00,2013-03-14 09:10:00,
2013-03-14 05:11:00,31.3,20.5,29.68,West,273,0.0,1.0,64,0.00,,---,0.00,VWS V14.00,2013-03-14 09:11:00,
2013-03-14 05:14:00,31.3,20.9,29.68,West,273,1.0,1.0,65,0.00,,---,0.00,VWS V14.00,2013-03-14 09:14:00,
2013-03-14 05:15:00,31.8,18.3,29.70,WSW,238,3.0,9.0,57,0.00,,---,0.00,VWS V14.00,2013-03-14 09:15:00,
2013-03-14 05:16:00,31.2,20.5,29.68,West,274,1.0,2.0,64,0.00,,---,0.00,VWS V14.00,2013-03-14 09:16:00,
2013-03-14 05:17:00,31.2,20.5,29.68,West,275,1.0,2.0,64,0.00,,---,0.00,VWS V14.00,2013-03-14 09:17:00,
2013-03-14 05:19:00,31.2,20.5,29.68,West,275,0.0,2.0,64,0.00,,---,0.00,VWS V14.00,2013-03-14 09:19:00,
2013-03-14 05:21:00,31.2,20.1,29.68,West,275,0.0,2.0,63,0.00,,---,0.00,VWS V14.00,2013-03-14 09:21:00,
2013-03-14 05:22:00,31.2,20.1,29.68,West,275,0.0,2.0,63,0.00,,---,0.00,VWS V14.00,2013-03-14 09:22:00,
2013-03-14 05:24:00,31.2,20.1,29.68,West,275,0.0,2.0,63,0.00,,---,0.00,VWS V14.00,2013-03-14 09:24:00,
2013-03-14 05:25:00,31.2,20.1,29.68,West,275,0.0,2.0,63,0.00,,---,0.00,VWS V14.00,2013-03-14 09:25:00,
2013-03-14 05:26:00,31.2,20.1,29.68,West,275,0.0,2.0,63,0.00,,---,0.00,VWS V14.00,2013-03-14 09:26:00,
2013-03-14 05:27:00,31.2,20.1,29.68,West,275,0.0,2.0,63,0.00,,---,0.00,VWS V14.00,2013-03-14 09:27:00,
2013-03-14 05:29:00,31.2,20.1,29.69,West,275,1.0,2.0,63,0.00,,---,0.00,VWS V14.00,2013-03-14 09:29:00,
2013-03-14 05:30:00,31.2,20.1,29.69,West,275,0.0,0.0,63,0.00,,---,0.00,VWS V14.00,2013-03-14 09:30:00,
2013-03-14 05:31:00,31.0,19.9,29.69,West,275,0.0,1.0,63,0.00,,---,0.00,VWS V14.00,2013-03-14 09:31:00,
2013-03-14 05:32:00,31.0,19.9,29.69,West,275,0.0,1.0,63,0.00,,---,0.00,VWS V14.00,2013-03-14 09:32:00,
2013-03-14 05:34:00,31.0,20.3,29.69,West,275,0.0,1.0,64,0.00,,---,0.00,VWS V14.00,2013-03-14 09:34:00,
2013-03-14 05:35:00,31.0,20.3,29.69,West,275,0.0,1.0,64,0.00,,---,0.00,VWS V14.00,2013-03-14 09:35:00,
2013-03-14 05:37:00,31.0,20.3,29.69,West,275,1.0,1.0,64,0.00,,---,0.00,VWS V14.00,2013-03-14 09:37:00,
2013-03-14 05:39:00,30.9,20.2,29.69,West,275,0.0,2.0,64,0.00,,---,0.00,VWS V14.00,2013-03-14 09:39:00,
2013-03-14 05:40:00,30.9,20.2,29.69,West,275,0.0,2.0,64,0.00,,---,0.00,VWS V14.00,2013-03-14 09:40:00,
2013-03-14 05:42:00,30.9,20.2,29.69,West,275,0.0,2.0,64,0.00,,---,0.00,VWS V14.00,2013-03-14 09:42:00,
2013-03-14 05:44:00,30.9,19.8,29.70,West,275,0.0,0.0,63,0.00,,---,0.00,VWS V14.00,2013-03-14 09:44:00,
2013-03-14 05:45:00,30.9,19.8,29.70,West,275,0.0,0.0,63,0.00,,---,0.00,VWS V14.00,2013-03-14 09:45:00,
2013-03-14 05:47:00,30.9,19.8,29.70,West,274,1.0,3.0,63,0.00,,---,0.00,VWS V14.00,2013-03-14 09:47:00,
2013-03-14 05:50:00,30.9,19.8,29.70,WSW,258,3.0,4.0,63,0.00,,---,0.00,VWS V14.00,2013-03-14 09:50:00,
2013-03-14 05:52:00,31.0,19.5,29.70,WSW,255,2.0,4.0,62,0.00,,---,0.00,VWS V14.00,2013-03-14 09:52:00,
2013-03-14 05:55:00,31.0,19.5,29.70,West,265,2.0,10.0,62,0.00,,---,0.00,VWS V14.00,2013-03-14 09:55:00,
2013-03-14 05:56:00,31.2,19.3,29.70,West,265,0.0,10.0,61,0.00,,---,0.00,VWS V14.00,2013-03-14 09:56:00,
2013-03-14 05:57:00,31.2,19.3,29.70,West,265,2.0,10.0,61,0.00,,---,0.00,VWS V14.00,2013-03-14 09:57:00,
2013-03-14 06:00:00,31.2,19.3,29.70,West,265,0.0,1.0,61,0.00,,---,0.00,VWS V14.00,2013-03-14 10:00:00,
2013-03-14 06:01:00,31.3,19.0,29.70,WNW,283,0.0,4.0,60,0.00,,---,0.00,VWS V14.00,2013-03-14 10:01:00,
2013-03-14 06:02:00,31.3,19.0,29.70,West,270,1.0,4.0,60,0.00,,---,0.00,VWS V14.00,2013-03-14 10:02:00,
2013-03-14 06:05:00,31.5,18.8,29.70,West,266,1.0,4.0,59,0.00,,---,0.00,VWS V14.00,2013-03-14 10:05:00,
2013-03-14 06:06:00,31.5,18.8,29.70,West,266,1.0,4.0,59,0.00,,---,0.00,VWS V14.00,2013-03-14 10:06:00,
2013-03-14 06:07:00,31.5,18.8,29.70,West,277,4.0,6.0,59,0.00,,---,0.00,VWS V14.00,2013-03-14 10:07:00,
2013-03-14 06:10:00,31.6,18.5,29.70,WNW,302,3.0,9.0,58,0.00,,---,0.00,VWS V14.00,2013-03-14 10:10:00,
2013-03-14 06:11:00,31.6,18.5,29.70,West,276,1.0,9.0,58,0.00,,---,0.00,VWS V14.00,2013-03-14 10:11:00,
2013-03-14 06:12:00,31.8,18.7,29.70,NNW,332,4.0,9.0,58,0.00,,---,0.00,VWS V14.00,2013-03-14 10:12:00,
2013-03-14 06:15:00,31.8,18.3,29.70,North,0,0.0,4.0,57,0.00,,---,0.00,VWS V14.00,2013-03-14 10:15:00,
2013-03-14 06:16:00,31.8,18.3,29.70,North,0,2.0,4.0,57,0.00,,---,0.00,VWS V14.00,2013-03-14 10:16:00,
2013-03-14 06:17:00,31.8,18.3,29.70,WNW,290,0.0,4.0,57,0.00,,---,0.00,VWS V14.00,2013-03-14 10:17:00,
2013-03-14 06:18:00,31.8,18.3,29.70,WNW,290,0.0,4.0,57,0.00,,---,0.00,VWS V14.00,2013-03-14 10:18:00,
2013-03-14 06:20:00,31.8,17.9,29.70,NNW,341,1.0,7.0,56,0.00,,---,0.00,VWS V14.00,2013-03-14 10:20:00,
2013-03-14 06:22:00,31.8,17.9,29.70,WNW,297,0.0,7.0,56,0.00,,---,0.00,VWS V14.00,2013-03-14 10:22:00,
2013-03-14 06:23:00,31.8,17.5,29.70,North,1,2.0,7.0,55,0.00,,---,0.00,VWS V14.00,2013-03-14 10:23:00,
2013-03-14 06:25:00,31.8,17.5,29.70,West,280,1.0,7.0,55,0.00,,---,0.00,VWS V14.00,2013-03-14 10:25:00,
2013-03-14 06:27:00,31.8,17.5,29.70,West,262,5.0,7.0,55,0.00,,---,0.00,VWS V14.00,2013-03-14 10:27:00,
2013-03-14 06:28:00,31.8,17.1,29.70,West,281,0.0,7.0,54,0.00,,---,0.00,VWS V14.00,2013-03-14 10:28:00,
2013-03-14 06:30:00,31.8,17.1,29.70,NNW,339,1.0,7.0,54,0.00,,---,0.00,VWS V14.00,2013-03-14 10:30:00,
2013-03-14 06:32:00,31.8,17.1,29.70,NNW,334,1.0,7.0,54,0.00,,---,0.00,VWS V14.00,2013-03-14 10:32:00,
2013-03-14 06:33:00,31.8,17.1,29.70,NNW,334,0.0,7.0,54,0.00,,---,0.00,VWS V14.00,2013-03-14 10:33:00,
2013-03-14 06:35:00,31.6,16.9,29.70,West,266,2.0,7.0,54,0.00,,---,0.00,VWS V14.00,2013-03-14 10:35:00,
2013-03-14 06:37:00,31.6,16.9,29.70,West,265,0.0,7.0,54,0.00,,---,0.00,VWS V14.00,2013-03-14 10:37:00,
2013-03-14 06:38:00,31.6,16.9,29.70,West,265,2.0,7.0,54,0.00,,---,0.00,VWS V14.00,2013-03-14 10:38:00,
2013-03-14 06:41:00,31.5,16.8,29.70,NW,309,3.0,7.0,54,0.00,,---,0.00,VWS V14.00,2013-03-14 10:41:00,
2013-03-14 06:42:00,31.5,16.8,29.70,NW,311,0.0,7.0,54,0.00,,---,0.00,VWS V14.00,2013-03-14 10:42:00,
2013-03-14 06:43:00,31.5,16.8,29.70,NW,310,0.0,7.0,54,0.00,,---,0.00,VWS V14.00,2013-03-14 10:43:00,
2013-03-14 06:45:00,31.3,13.4,29.71,West,268,3.0,11.0,47,0.00,,---,0.00,VWS V14.00,2013-03-14 10:45:00,
2013-03-14 06:46:00,31.5,16.8,29.71,WNW,283,0.0,4.0,54,0.00,,---,0.00,VWS V14.00,2013-03-14 10:46:00,
2013-03-14 06:47:00,31.5,16.8,29.71,WNW,283,0.0,4.0,54,0.00,,---,0.00,VWS V14.00,2013-03-14 10:47:00,
2013-03-14 06:48:00,31.5,16.8,29.71,WNW,283,0.0,4.0,54,0.00,,---,0.00,VWS V14.00,2013-03-14 10:48:00,
2013-03-14 06:51:00,31.3,17.0,29.71,WNW,283,1.0,4.0,55,0.00,,---,0.00,VWS V14.00,2013-03-14 10:51:00,
2013-03-14 06:52:00,31.3,17.0,29.71,WNW,283,1.0,4.0,55,0.00,,---,0.00,VWS V14.00,2013-03-14 10:52:00,
2013-03-14 06:53:00,31.3,17.0,29.71,West,262,0.0,4.0,55,0.00,,---,0.00,VWS V14.00,2013-03-14 10:53:00,
2013-03-14 06:56:00,31.3,17.0,29.71,West,262,0.0,4.0,55,0.00,,---,0.00,VWS V14.00,2013-03-14 10:56:00,
2013-03-14 06:57:00,31.3,17.4,29.71,West,262,0.0,4.0,56,0.00,,---,0.00,VWS V14.00,2013-03-14 10:57:00,
2013-03-14 06:58:00,31.3,17.0,29.71,West,262,0.0,4.0,55,0.00,,---,0.00,VWS V14.00,2013-03-14 10:58:00,
2013-03-14 07:00:00,31.3,13.4,29.72,WNW,294,2.0,9.0,47,0.00,,---,0.00,VWS V14.00,2013-03-14 11:00:00,
2013-03-14 07:01:00,31.3,17.4,29.71,WSW,244,0.0,4.0,56,0.00,,---,0.00,VWS V14.00,2013-03-14 11:01:00,
2013-03-14 07:02:00,31.3,17.4,29.71,WSW,244,1.0,4.0,56,0.00,,---,0.00,VWS V14.00,2013-03-14 11:02:00,
2013-03-14 07:03:00,31.3,17.4,29.71,WSW,256,2.0,6.0,56,0.00,,---,0.00,VWS V14.00,2013-03-14 11:03:00,
2013-03-14 07:06:00,31.2,16.9,29.71,SW,235,0.0,6.0,55,0.00,,---,0.00,VWS V14.00,2013-03-14 11:06:00,
2013-03-14 07:07:00,31.3,17.0,29.71,SW,235,0.0,6.0,55,0.00,,---,0.00,VWS V14.00,2013-03-14 11:07:00,
2013-03-14 07:08:00,31.3,17.0,29.71,SW,235,0.0,6.0,55,0.00,,---,0.00,VWS V14.00,2013-03-14 11:08:00,
2013-03-14 07:12:00,31.2,16.9,29.71,NNW,343,0.0,6.0,55,0.00,,---,0.00,VWS V14.00,2013-03-14 11:12:00,
2013-03-14 07:13:00,31.2,16.5,29.71,NNW,343,0.0,6.0,54,0.00,,---,0.00,VWS V14.00,2013-03-14 11:13:00,
2013-03-14 07:14:00,31.2,16.5,29.71,SSW,195,0.0,6.0,54,0.00,,---,0.00,VWS V14.00,2013-03-14 11:14:00,
2013-03-14 07:15:00,31.3,13.4,29.72,North,359,4.0,6.0,47,0.00,,---,0.00,VWS V14.00,2013-03-14 11:15:00,
2013-03-14 07:17:00,31.3,16.6,29.71,WSW,246,0.0,3.0,54,0.00,,---,0.00,VWS V14.00,2013-03-14 11:17:00,
2013-03-14 07:18:00,31.3,16.6,29.71,WSW,246,0.0,3.0,54,0.00,,---,0.00,VWS V14.00,2013-03-14 11:18:00,
2013-03-14 07:19:00,31.3,16.6,29.71,WSW,246,0.0,3.0,54,0.00,,---,0.00,VWS V14.00,2013-03-14 11:19:00,
2013-03-14 07:22:00,31.3,16.2,29.71,West,275,3.0,4.0,53,0.00,,---,0.00,VWS V14.00,2013-03-14 11:22:00,
2013-03-14 07:23:00,31.3,15.7,29.71,North,359,1.0,4.0,52,0.00,,---,0.00,VWS V14.00,2013-03-14 11:23:00,
2013-03-14 07:24:00,31.3,15.7,29.71,NW,304,2.0,4.0,52,0.00,,---,0.00,VWS V14.00,2013-03-14 11:24:00,
2013-03-14 07:27:00,31.3,15.3,29.71,NW,306,2.0,4.0,51,0.00,,---,0.00,VWS V14.00,2013-03-14 11:27:00,
2013-03-14 07:28:00,31.3,15.3,29.71,NNW,330,1.0,7.0,51,0.00,,---,0.00,VWS V14.00,2013-03-14 11:28:00,
2013-03-14 07:29:00,31.3,14.8,29.71,NW,323,0.0,7.0,50,0.00,,---,0.00,VWS V14.00,2013-03-14 11:29:00,
2013-03-14 07:30:00,31.3,13.4,29.72,North,351,4.0,9.0,47,0.00,,---,0.00,VWS V14.00,2013-03-14 11:30:00,
2013-03-14 07:33:00,31.3,14.4,29.71,North,354,3.0,6.0,49,0.00,,---,0.00,VWS V14.00,2013-03-14 11:33:00,
2013-03-14 07:34:00,31.3,14.4,29.71,NNW,347,3.0,6.0,49,0.00,,---,0.00,VWS V14.00,2013-03-14 11:34:00,
2013-03-14 07:38:00,31.3,13.4,29.71,NNW,347,3.0,11.0,47,0.00,,---,0.00,VWS V14.00,2013-03-14 11:38:00,
2013-03-14 07:39:00,31.3,13.4,29.71,NW,323,0.0,11.0,47,0.00,,---,0.00,VWS V14.00,2013-03-14 11:39:00,
2013-03-14 07:43:00,31.3,13.4,29.71,NNW,340,2.0,11.0,47,0.00,,---,0.00,VWS V14.00,2013-03-14 11:43:00,
2013-03-14 07:44:00,31.3,13.4,29.71,WNW,286,1.0,11.0,47,0.00,,---,0.00,VWS V14.00,2013-03-14 11:44:00,
2013-03-14 07:45:00,31.6,14.2,29.72,NW,310,3.0,13.0,48,0.00,,---,0.00,VWS V14.00,2013-03-14 11:45:00,
2013-03-14 07:48:00,31.3,13.4,29.71,NW,325,4.0,7.0,47,0.00,,---,0.00,VWS V14.00,2013-03-14 11:48:00,
2013-03-14 07:49:00,31.3,13.4,29.71,NW,326,2.0,7.0,47,0.00,,---,0.00,VWS V14.00,2013-03-14 11:49:00,
2013-03-14 07:50:00,31.3,13.4,29.71,NNW,330,3.0,7.0,47,0.00,,---,0.00,VWS V14.00,2013-03-14 11:50:00,
2013-03-14 07:53:00,31.3,13.4,29.71,West,271,0.0,9.0,47,0.00,,---,0.00,VWS V14.00,2013-03-14 11:53:00,
2013-03-14 07:54:00,31.3,13.4,29.71,West,271,2.0,9.0,47,0.00,,---,0.00,VWS V14.00,2013-03-14 11:54:00,
2013-03-14 07:55:00,31.3,13.4,29.71,WSW,252,1.0,9.0,47,0.00,,---,0.00,VWS V14.00,2013-03-14 11:55:00,
2013-03-14 07:58:00,31.3,13.4,29.72,NW,311,0.0,9.0,47,0.00,,---,0.00,VWS V14.00,2013-03-14 11:58:00,
2013-03-14 07:59:00,31.3,13.4,29.72,WNW,303,1.0,9.0,47,0.00,,---,0.00,VWS V14.00,2013-03-14 11:59:00,
2013-03-14 08:00:00,31.3,13.4,29.72,NNW,345,5.0,6.0,47,0.00,,---,0.00,VWS V14.00,2013-03-14 12:00:00,
2013-03-14 08:04:00,31.3,13.4,29.72,NNW,333,5.0,6.0,47,0.00,,---,0.00,VWS V14.00,2013-03-14 12:04:00,
2013-03-14 08:05:00,31.2,13.3,29.72,WNW,294,2.0,6.0,47,0.00,,---,0.00,VWS V14.00,2013-03-14 12:05:00,
2013-03-14 08:09:00,31.3,13.4,29.72,WSW,248,2.0,6.0,47,0.00,,---,0.00,VWS V14.00,2013-03-14 12:09:00,
2013-03-14 08:10:00,31.3,13.4,29.72,NNW,330,4.0,6.0,47,0.00,,---,0.00,VWS V14.00,2013-03-14 12:10:00,
2013-03-14 08:14:00,31.3,13.4,29.72,NNW,347,3.0,6.0,47,0.00,,---,0.00,VWS V14.00,2013-03-14 12:14:00,
2013-03-14 08:15:00,31.3,13.4,29.72,North,355,0.0,4.0,47,0.00,,---,0.00,VWS V14.00,2013-03-14 12:15:00,
2013-03-14 08:19:00,31.3,13.9,29.72,NW,309,3.0,4.0,48,0.00,,---,0.00,VWS V14.00,2013-03-14 12:19:00,
2013-03-14 08:20:00,31.3,13.9,29.72,NW,324,2.0,4.0,48,0.00,,---,0.00,VWS V14.00,2013-03-14 12:20:00,
2013-03-14 08:24:00,31.3,13.4,29.72,North,352,1.0,7.0,47,0.00,,---,0.00,VWS V14.00,2013-03-14 12:24:00,
2013-03-14 08:25:00,31.3,13.4,29.72,North,351,0.0,7.0,47,0.00,,---,0.00,VWS V14.00,2013-03-14 12:25:00,
2013-03-14 08:29:00,31.3,13.4,29.72,NNW,337,5.0,9.0,47,0.00,,---,0.00,VWS V14.00,2013-03-14 12:29:00,
2013-03-14 08:30:00,31.5,13.6,29.72,NNW,328,6.0,6.0,47,0.00,,---,0.00,VWS V14.00,2013-03-14 12:30:00,
2013-03-14 08:34:00,31.5,13.1,29.72,NNW,329,5.0,13.0,46,0.00,,---,0.00,VWS V14.00,2013-03-14 12:34:00,
2013-03-14 08:35:00,31.5,13.1,29.72,NNW,338,1.0,13.0,46,0.00,,---,0.00,VWS V14.00,2013-03-14 12:35:00,
2013-03-14 08:39:00,31.5,13.6,29.72,NW,310,5.0,13.0,47,0.00,,---,0.00,VWS V14.00,2013-03-14 12:39:00,
2013-03-14 08:40:00,31.5,13.6,29.72,NNW,338,2.0,13.0,47,0.00,,---,0.00,VWS V14.00,2013-03-14 12:40:00,
2013-03-14 08:44:00,31.6,13.7,29.72,WNW,283,3.0,6.0,47,0.00,,---,0.00,VWS V14.00,2013-03-14 12:44:00,
2013-03-14 08:45:00,31.6,13.7,29.72,WNW,300,2.0,6.0,47,0.00,,---,0.00,VWS V14.00,2013-03-14 12:45:00,
2013-03-14 08:49:00,31.6,13.7,29.72,West,278,0.0,6.0,47,0.00,,---,0.00,VWS V14.00,2013-03-14 12:49:00,
2013-03-14 08:50:00,31.6,13.7,29.72,West,278,0.0,6.0,47,0.00,,---,0.00,VWS V14.00,2013-03-14 12:50:00,
2013-03-14 08:55:00,31.8,13.9,29.72,West,272,0.0,6.0,47,0.00,,---,0.00,VWS V14.00,2013-03-14 12:55:00,
2013-03-14 08:56:00,31.8,14.4,29.72,West,272,0.0,6.0,48,0.00,,---,0.00,VWS V14.00,2013-03-14 12:56:00,
2013-03-14 09:00:00,31.9,14.0,29.73,SW,233,3.0,5.0,47,0.00,,---,0.00,VWS V14.00,2013-03-14 13:00:00,
2013-03-14 09:01:00,31.9,14.0,29.73,WSW,248,1.0,5.0,47,0.00,,---,0.00,VWS V14.00,2013-03-14 13:01:00,
2013-03-14 09:05:00,31.8,13.9,29.73,North,350,5.0,9.0,47,0.00,,---,0.00,VWS V14.00,2013-03-14 13:05:00,
2013-03-14 09:07:00,31.8,13.4,29.73,West,268,0.0,9.0,46,0.00,,---,0.00,VWS V14.00,2013-03-14 13:07:00,
2013-03-14 09:10:00,31.8,13.9,29.73,West,263,6.0,9.0,47,0.00,,---,0.00,VWS V14.00,2013-03-14 13:10:00,
2013-03-14 09:12:00,31.8,13.9,29.73,WNW,289,0.0,9.0,47,0.00,,---,0.00,VWS V14.00,2013-03-14 13:12:00,
2013-03-14 09:15:00,31.8,13.9,29.72,West,266,1.0,2.0,47,0.00,,---,0.00,VWS V14.00,2013-03-14 13:15:00,
2013-03-14 09:16:00,31.8,13.9,29.72,WNW,284,0.0,2.0,47,0.00,,---,0.00,VWS V14.00,2013-03-14 13:16:00,
2013-03-14 09:17:00,31.8,13.9,29.72,West,274,4.0,7.0,47,0.00,,---,0.00,VWS V14.00,2013-03-14 13:17:00,
2013-03-14 09:20:00,31.8,13.9,29.72,West,263,5.0,10.0,47,0.00,,---,0.00,VWS V14.00,2013-03-14 13:20:00,
2013-03-14 09:22:00,31.8,13.9,29.72,North,359,4.0,11.0,47,0.00,,---,0.00,VWS V14.00,2013-03-14 13:22:00,
2013-03-14 09:25:00,31.8,13.9,29.72,West,264,1.0,11.0,47,0.00,,---,0.00,VWS V14.00,2013-03-14 13:25:00,
2013-03-14 09:26:00,31.8,13.9,29.72,NNW,339,7.0,11.0,47,0.00,,---,0.00,VWS V14.00,2013-03-14 13:26:00,
2013-03-14 09:27:00,31.8,13.9,29.72,NW,324,3.0,11.0,47,0.00,,---,0.00,VWS V14.00,2013-03-14 13:27:00,
2013-03-14 09:30:00,31.8,13.9,29.72,West,274,5.0,7.0,47,0.00,,---,0.00,VWS V14.00,2013-03-14 13:30:00,
2013-03-14 09:31:00,31.8,13.4,29.72,WNW,285,1.0,7.0,46,0.00,,---,0.00,VWS V14.00,2013-03-14 13:31:00,
2013-03-14 09:32:00,31.9,14.0,29.72,NNW,346,2.0,7.0,47,0.00,,---,0.00,VWS V14.00,2013-03-14 13:32:00,
2013-03-14 09:35:00,31.9,13.0,29.72,NNW,331,3.0,16.0,45,0.00,,---,0.00,VWS V14.00,2013-03-14 13:35:00,
2013-03-14 09:36:00,31.8,13.4,29.72,NW,305,2.0,16.0,46,0.00,,---,0.00,VWS V14.00,2013-03-14 13:36:00,
2013-03-14 09:37:00,31.9,13.5,29.72,SW,236,2.0,16.0,46,0.00,,---,0.00,VWS V14.00,2013-03-14 13:37:00,
2013-03-14 09:40:00,31.9,13.5,29.72,NNW,330,10.0,16.0,46,0.00,,---,0.00,VWS V14.00,2013-03-14 13:40:00,
2013-03-14 09:41:00,31.9,13.5,29.72,West,267,4.0,16.0,46,0.00,,---,0.00,VWS V14.00,2013-03-14 13:41:00,
2013-03-14 09:42:00,31.9,13.0,29.72,NNW,338,6.0,16.0,45,0.00,,---,0.00,VWS V14.00,2013-03-14 13:42:00,
2013-03-14 09:45:00,31.9,13.5,29.72,NNW,341,1.0,3.0,46,0.00,,---,0.00,VWS V14.00,2013-03-14 13:45:00,
2013-03-14 09:46:00,31.9,13.5,29.72,SW,236,1.0,4.0,46,0.00,,---,0.00,VWS V14.00,2013-03-14 13:46:00,
2013-03-14 09:47:00,31.9,13.5,29.72,NNW,330,4.0,8.0,46,0.00,,---,0.00,VWS V14.00,2013-03-14 13:47:00,
2013-03-14 09:50:00,32.1,13.7,29.72,NW,311,0.0,8.0,46,0.00,,---,0.00,VWS V14.00,2013-03-14 13:50:00,
2013-03-14 09:51:00,32.1,13.7,29.72,WNW,284,3.0,8.0,46,0.00,,---,0.00,VWS V14.00,2013-03-14 13:51:00,
2013-03-14 09:53:00,32.1,13.2,29.72,NNW,342,2.0,11.0,45,0.00,,---,0.00,VWS V14.00,2013-03-14 13:53:00,
2013-03-14 09:55:00,32.1,13.7,29.72,NW,323,4.0,11.0,46,0.00,,---,0.00,VWS V14.00,2013-03-14 13:55:00,
2013-03-14 09:56:00,32.2,13.3,29.72,North,2,4.0,11.0,45,0.00,,---,0.00,VWS V14.00,2013-03-14 13:56:00,
2013-03-14 09:58:00,32.1,13.2,29.72,WSW,251,6.0,11.0,45,0.00,,---,0.00,VWS V14.00,2013-03-14 13:58:00,
2013-03-14 10:00:00,32.2,12.8,29.72,WNW,303,1.0,9.0,44,0.00,,---,0.00,VWS V14.00,2013-03-14 14:00:00,
2013-03-14 10:01:00,32.2,12.8,29.72,NW,304,1.0,9.0,44,0.00,,---,0.00,VWS V14.00,2013-03-14 14:01:00,
2013-03-14 10:03:00,32.2,13.3,29.72,West,271,0.0,9.0,45,0.00,,---,0.00,VWS V14.00,2013-03-14 14:03:00,
2013-03-14 10:05:00,32.2,12.8,29.72,North,1,3.0,9.0,44,0.00,,---,0.00,VWS V14.00,2013-03-14 14:05:00,
2013-03-14 10:06:00,32.2,12.8,29.72,North,353,1.0,9.0,44,0.00,,---,0.00,VWS V14.00,2013-03-14 14:06:00,
2013-03-14 10:08:00,32.4,12.4,29.72,SW,227,4.0,11.0,43,0.00,,---,0.00,VWS V14.00,2013-03-14 14:08:00,
2013-03-14 10:10:00,32.4,12.9,29.72,NNW,347,0.0,11.0,44,0.00,,---,0.00,VWS V14.00,2013-03-14 14:10:00,
2013-03-14 10:11:00,32.4,12.9,29.72,NNW,339,3.0,11.0,44,0.00,,---,0.00,VWS V14.00,2013-03-14 14:11:00,
2013-03-14 10:13:00,32.2,12.2,29.72,West,262,11.0,11.0,43,0.00,,---,0.00,VWS V14.00,2013-03-14 14:13:00,
2013-03-14 10:15:00,32.2,11.7,29.71,North,359,5.0,10.0,42,0.00,,---,0.00,VWS V14.00,2013-03-14 14:15:00,
2013-03-14 10:16:00,32.2,11.2,29.71,NNW,347,3.0,10.0,41,0.00,,---,0.00,VWS V14.00,2013-03-14 14:16:00,
2013-03-14 10:17:00,32.2,11.2,29.71,NNW,347,0.0,10.0,41,0.00,,---,0.00,VWS V14.00,2013-03-14 14:17:00,
2013-03-14 10:18:00,32.1,11.1,29.71,NNW,345,4.0,12.0,41,0.00,,---,0.00,VWS V14.00,2013-03-14 14:18:00,
2013-03-14 10:20:00,32.1,11.1,29.71,NNW,343,3.0,12.0,41,0.00,,---,0.00,VWS V14.00,2013-03-14 14:20:00,
2013-03-14 10:22:00,32.1,11.6,29.71,NNW,340,2.0,12.0,42,0.00,,---,0.00,VWS V14.00,2013-03-14 14:22:00,
2013-03-14 10:23:00,32.1,11.1,29.71,West,277,0.0,12.0,41,0.00,,---,0.00,VWS V14.00,2013-03-14 14:23:00,
2013-03-14 10:26:00,32.1,11.6,29.71,West,274,2.0,12.0,42,0.00,,---,0.00,VWS V14.00,2013-03-14 14:26:00,
2013-03-14 10:27:00,32.2,11.7,29.71,SW,231,1.0,12.0,42,0.00,,---,0.00,VWS V14.00,2013-03-14 14:27:00,
2013-03-14 10:28:00,32.2,11.7,29.71,North,354,1.0,12.0,42,0.00,,---,0.00,VWS V14.00,2013-03-14 14:28:00,
2013-03-14 10:30:00,33.2,10.4,29.70,SW,217,2.0,16.0,38,0.00,,---,0.00,VWS V14.00,2013-03-14 14:30:00,
2013-03-14 10:31:00,32.4,11.3,29.71,NW,311,2.0,9.0,41,0.00,,---,0.00,VWS V14.00,2013-03-14 14:31:00,
2013-03-14 10:32:00,32.4,11.3,29.71,SW,220,5.0,9.0,41,0.00,,---,0.00,VWS V14.00,2013-03-14 14:32:00,
2013-03-14 10:33:00,32.4,11.3,29.71,West,276,1.0,9.0,41,0.00,,---,0.00,VWS V14.00,2013-03-14 14:33:00,
2013-03-14 10:36:00,32.4,11.3,29.71,West,278,1.0,10.0,41,0.00,,---,0.00,VWS V14.00,2013-03-14 14:36:00,
2013-03-14 10:37:00,32.4,11.3,29.71,WNW,284,2.0,10.0,41,0.00,,---,0.00,VWS V14.00,2013-03-14 14:37:00,
2013-03-14 10:38:00,32.4,11.3,29.71,WSW,238,5.0,10.0,41,0.00,,---,0.00,VWS V14.00,2013-03-14 14:38:00,
2013-03-14 10:42:00,32.4,11.3,29.71,NNW,342,3.0,10.0,41,0.00,,---,0.00,VWS V14.00,2013-03-14 14:42:00,
2013-03-14 10:43:00,32.5,12.0,29.70,NNW,340,7.0,10.0,42,0.00,,---,0.00,VWS V14.00,2013-03-14 14:43:00,
2013-03-14 10:45:00,34.1,11.2,29.69,NNW,328,4.0,12.0,38,0.00,,---,0.00,VWS V14.00,2013-03-14 14:45:00,
2013-03-14 10:47:00,32.5,12.5,29.70,NNW,343,3.0,3.0,43,0.00,,---,0.00,VWS V14.00,2013-03-14 14:47:00,
2013-03-14 10:48:00,32.7,12.7,29.70,NNW,342,2.0,4.0,43,0.00,,---,0.00,VWS V14.00,2013-03-14 14:48:00,
2013-03-14 10:52:00,32.9,12.3,29.70,WNW,283,3.0,9.0,42,0.00,,---,0.00,VWS V14.00,2013-03-14 14:52:00,
2013-03-14 10:53:00,32.9,12.3,29.70,WNW,287,0.0,9.0,42,0.00,,---,0.00,VWS V14.00,2013-03-14 14:53:00,
2013-03-14 10:58:00,32.9,11.8,29.70,West,269,4.0,9.0,41,0.00,,---,0.00,VWS V14.00,2013-03-14 14:58:00,
2013-03-14 11:00:00,34.4,11.4,29.68,SW,222,2.0,18.0,38,0.00,,---,0.00,VWS V14.00,2013-03-14 15:00:00,
2013-03-14 11:03:00,33.1,12.5,29.70,West,273,1.0,7.0,42,0.00,,---,0.00,VWS V14.00,2013-03-14 15:03:00,
2013-03-14 11:04:00,33.1,12.5,29.70,West,275,0.0,7.0,42,0.00,,---,0.00,VWS V14.00,2013-03-14 15:04:00,
2013-03-14 11:08:00,33.2,12.1,29.70,NNW,342,2.0,9.0,41,0.00,,---,0.00,VWS V14.00,2013-03-14 15:08:00,
2013-03-14 11:09:00,33.2,12.1,29.70,NNW,342,0.0,9.0,41,0.00,,---,0.00,VWS V14.00,2013-03-14 15:09:00,
2013-03-14 11:13:00,33.4,12.2,29.70,NNW,345,4.0,9.0,41,0.00,,---,0.00,VWS V14.00,2013-03-14 15:13:00,
2013-03-14 11:14:00,33.4,11.7,29.70,NNW,329,12.0,12.0,40,0.00,,---,0.00,VWS V14.00,2013-03-14 15:14:00,
2013-03-14 11:15:00,34.6,9.8,29.67,NNW,330,7.0,14.0,35,0.00,,---,0.00,VWS V14.00,2013-03-14 15:15:00,
2013-03-14 11:18:00,33.1,10.9,29.70,West,264,11.0,11.0,39,0.00,,---,0.00,VWS V14.00,2013-03-14 15:18:00,
2013-03-14 11:19:00,33.1,9.7,29.70,West,271,2.0,16.0,37,0.00,,---,0.00,VWS V14.00,2013-03-14 15:19:00,
2013-03-14 11:23:00,32.9,9.5,29.70,West,266,6.0,16.0,37,0.00,,---,0.00,VWS V14.00,2013-03-14 15:23:00,
2013-03-14 11:24:00,32.9,9.5,29.70,SW,226,4.0,16.0,37,0.00,,---,0.00,VWS V14.00,2013-03-14 15:24:00,
2013-03-14 11:28:00,33.1,9.7,29.70,NW,309,1.0,16.0,37,0.00,,---,0.00,VWS V14.00,2013-03-14 15:28:00,
2013-03-14 11:29:00,33.2,10.4,29.70,WSW,242,2.0,2.0,38,0.00,,---,0.00,VWS V14.00,2013-03-14 15:29:00,
2013-03-14 11:30:00,33.8,9.7,29.67,North,354,6.0,12.0,36,0.00,,---,0.00,VWS V14.00,2013-03-14 15:30:00,
2013-03-14 11:33:00,33.5,10.6,29.70,WSW,251,7.0,12.0,38,0.00,,---,0.00,VWS V14.00,2013-03-14 15:33:00,
2013-03-14 11:34:00,33.5,10.0,29.70,West,263,2.0,12.0,37,0.00,,---,0.00,VWS V14.00,2013-03-14 15:34:00,
2013-03-14 11:38:00,33.5,10.6,29.70,WNW,295,2.0,12.0,38,0.00,,---,0.00,VWS V14.00,2013-03-14 15:38:00,
2013-03-14 11:39:00,33.5,10.6,29.70,WNW,295,0.0,12.0,38,0.00,,---,0.00,VWS V14.00,2013-03-14 15:39:00,
2013-03-14 11:40:00,33.5,10.6,29.70,NNW,330,1.0,12.0,38,0.00,,---,0.00,VWS V14.00,2013-03-14 15:40:00,
2013-03-14 11:43:00,34.0,11.1,29.69,NNW,329,3.0,12.0,38,0.00,,---,0.00,VWS V14.00,2013-03-14 15:43:00,
2013-03-14 11:44:00,34.0,11.1,29.69,NNW,330,5.0,12.0,38,0.00,,---,0.00,VWS V14.00,2013-03-14 15:44:00,
2013-03-14 11:45:00,34.1,10.6,29.69,NNW,328,1.0,4.0,37,0.00,,---,0.00,VWS V14.00,2013-03-14 15:45:00,
2013-03-14 11:48:00,34.3,11.4,29.69,WSW,253,2.0,6.0,38,0.00,,---,0.00,VWS V14.00,2013-03-14 15:48:00,
2013-03-14 11:49:00,34.3,11.4,29.69,SSW,205,2.0,6.0,38,0.00,,---,0.00,VWS V14.00,2013-03-14 15:49:00,
2013-03-14 11:50:00,34.4,11.4,29.69,SSW,192,5.0,6.0,38,0.00,,---,0.00,VWS V14.00,2013-03-14 15:50:00,
2013-03-14 11:53:00,34.6,11.0,29.69,WSW,239,3.0,13.0,37,0.00,,---,0.00,VWS V14.00,2013-03-14 15:53:00,
2013-03-14 11:54:00,34.6,11.0,29.69,West,264,10.0,13.0,37,0.00,,---,0.00,VWS V14.00,2013-03-14 15:54:00,
2013-03-14 11:55:00,34.4,10.2,29.69,NNW,337,4.0,18.0,36,0.00,,---,0.00,VWS V14.00,2013-03-14 15:55:00,
2013-03-14 11:58:00,34.4,11.4,29.68,WSW,255,5.0,18.0,38,0.00,,---,0.00,VWS V14.00,2013-03-14 15:58:00,
2013-03-14 11:59:00,34.4,11.4,29.68,SW,222,2.0,18.0,38,0.00,,---,0.00,VWS V14.00,2013-03-14 15:59:00,
2013-03-14 12:00:00,34.6,11.0,29.68,SW,222,0.0,2.0,37,0.00,,---,0.00,VWS V14.00,2013-03-14 16:00:00,
2013-03-14 12:04:00,35.2,10.3,29.68,NNW,338,2.0,14.0,35,0.00,,---,0.00,VWS V14.00,2013-03-14 16:04:00,
2013-03-14 12:05:00,35.3,10.4,29.68,West,262,10.0,14.0,35,0.00,,---,0.00,VWS V14.00,2013-03-14 16:05:00,
2013-03-14 12:09:00,34.9,9.4,29.68,WNW,285,3.0,14.0,34,0.00,,---,0.00,VWS V14.00,2013-03-14 16:09:00,
2013-03-14 12:10:00,34.7,9.9,29.68,WSW,254,3.0,14.0,35,0.00,,---,0.00,VWS V14.00,2013-03-14 16:10:00,
2013-03-14 12:14:00,34.7,9.9,29.67,NW,321,4.0,14.0,35,0.00,,---,0.00,VWS V14.00,2013-03-14 16:14:00,
2013-03-14 12:15:00,34.6,9.8,29.67,WNW,301,6.0,11.0,35,0.00,,---,0.00,VWS V14.00,2013-03-14 16:15:00,
2013-03-14 12:19:00,34.1,8.7,29.67,NNW,330,0.0,11.0,34,0.00,,---,0.00,VWS V14.00,2013-03-14 16:19:00,
2013-03-14 12:20:00,34.0,9.2,29.67,WNW,289,5.0,12.0,35,0.00,,---,0.00,VWS V14.00,2013-03-14 16:20:00,
2013-03-14 12:24:00,33.8,9.7,29.67,NNW,329,6.0,12.0,36,0.00,,---,0.00,VWS V14.00,2013-03-14 16:24:00,
2013-03-14 12:25:00,33.7,9.6,29.67,NNW,327,2.0,12.0,36,0.00,,---,0.00,VWS V14.00,2013-03-14 16:25:00,
2013-03-14 12:29:00,33.8,10.3,29.67,North,359,2.0,12.0,37,0.00,,---,0.00,VWS V14.00,2013-03-14 16:29:00,
2013-03-14 12:30:00,34.0,10.5,29.67,NW,316,3.0,10.0,37,0.00,,---,0.00,VWS V14.00,2013-03-14 16:30:00,
2013-03-14 12:31:00,34.0,10.5,29.67,NNW,345,4.0,10.0,37,0.00,,---,0.00,VWS V14.00,2013-03-14 16:31:00,
2013-03-14 12:34:00,33.8,9.7,29.67,North,3,2.0,10.0,36,0.00,,---,0.00,VWS V14.00,2013-03-14 16:34:00,
2013-03-14 12:35:00,33.8,9.7,29.67,NW,316,1.0,15.0,36,0.00,,---,0.00,VWS V14.00,2013-03-14 16:35:00,
2013-03-14 12:36:00,33.7,9.6,29.67,NNW,340,4.0,15.0,36,0.00,,---,0.00,VWS V14.00,2013-03-14 16:36:00,
2013-03-14 12:39:00,33.5,10.6,29.67,NW,317,0.0,15.0,38,0.00,,---,0.00,VWS V14.00,2013-03-14 16:39:00,
2013-03-14 12:41:00,33.5,9.4,29.67,WNW,288,3.0,15.0,36,0.00,,---,0.00,VWS V14.00,2013-03-14 16:41:00,
2013-03-14 12:44:00,33.8,9.7,29.67,NNW,334,5.0,15.0,36,0.00,,---,0.00,VWS V14.00,2013-03-14 16:44:00,
2013-03-14 12:45:00,33.4,6.7,29.66,NNW,333,7.0,19.0,32,0.00,,---,0.00,VWS V14.00,2013-03-14 16:45:00,
2013-03-14 12:46:00,33.7,9.0,29.67,NNW,347,3.0,21.0,35,0.00,,---,0.00,VWS V14.00,2013-03-14 16:46:00,
2013-03-14 12:49:00,33.5,9.4,29.67,NW,319,5.0,21.0,36,0.00,,---,0.00,VWS V14.00,2013-03-14 16:49:00,
2013-03-14 12:50:00,33.5,9.4,29.67,WNW,287,4.0,21.0,36,0.00,,---,0.00,VWS V14.00,2013-03-14 16:50:00,
2013-03-14 12:52:00,33.7,10.8,29.67,SSW,195,1.0,21.0,38,0.00,,---,0.00,VWS V14.00,2013-03-14 16:52:00,
2013-03-14 12:55:00,34.3,10.1,29.67,West,272,4.0,21.0,36,0.00,,---,0.00,VWS V14.00,2013-03-14 16:55:00,
2013-03-14 12:57:00,34.9,11.3,29.67,NNW,341,5.0,21.0,37,0.00,,---,0.00,VWS V14.00,2013-03-14 16:57:00,
2013-03-14 13:00:00,35.3,10.4,29.67,NNW,345,4.0,4.0,35,0.00,,---,0.00,VWS V14.00,2013-03-14 17:00:00,
2013-03-14 13:02:00,35.5,9.3,29.67,NNW,330,3.0,19.0,33,0.00,,---,0.00,VWS V14.00,2013-03-14 17:02:00,
2013-03-14 13:03:00,35.6,9.4,29.67,NW,324,2.0,19.0,33,0.00,,---,0.00,VWS V14.00,2013-03-14 17:03:00,
2013-03-14 13:05:00,35.3,9.1,29.67,NNW,329,5.0,19.0,33,0.00,,---,0.00,VWS V14.00,2013-03-14 17:05:00,
2013-03-14 13:07:00,34.7,8.6,29.67,North,356,2.0,19.0,33,0.00,,---,0.00,VWS V14.00,2013-03-14 17:07:00,
2013-03-14 13:08:00,34.6,9.1,29.67,NNW,333,2.0,19.0,34,0.00,,---,0.00,VWS V14.00,2013-03-14 17:08:00,
2013-03-14 13:10:00,34.1,8.0,29.67,North,1,7.0,19.0,33,0.00,,---,0.00,VWS V14.00,2013-03-14 17:10:00,
2013-03-14 13:12:00,33.5,8.1,29.67,NNW,339,1.0,19.0,34,0.00,,---,0.00,VWS V14.00,2013-03-14 17:12:00,
2013-03-14 13:13:00,33.5,8.1,29.67,NNW,339,2.0,19.0,34,0.00,,---,0.00,VWS V14.00,2013-03-14 17:13:00,
2013-03-14 13:15:00,33.5,8.8,29.67,West,270,14.0,14.0,35,0.00,,---,0.00,VWS V14.00,2013-03-14 17:15:00,
2013-03-14 13:18:00,33.7,7.7,29.67,West,262,2.0,14.0,33,0.00,,---,0.00,VWS V14.00,2013-03-14 17:18:00,
2013-03-14 13:20:00,33.8,7.8,29.67,SSW,197,1.0,14.0,33,0.00,,---,0.00,VWS V14.00,2013-03-14 17:20:00,
2013-03-14 13:21:00,34.0,7.9,29.67,WSW,255,2.0,14.0,33,0.00,,---,0.00,VWS V14.00,2013-03-14 17:21:00,
2013-03-14 13:23:00,34.1,8.7,29.67,NNW,328,9.0,14.0,34,0.00,,---,0.00,VWS V14.00,2013-03-14 17:23:00,
2013-03-14 13:25:00,34.0,7.9,29.67,North,349,5.0,14.0,33,0.00,,---,0.00,VWS V14.00,2013-03-14 17:25:00,
2013-03-14 13:26:00,34.0,8.6,29.67,NNW,329,4.0,14.0,34,0.00,,---,0.00,VWS V14.00,2013-03-14 17:26:00,
2013-03-14 13:28:00,33.4,8.1,29.66,NNE,25,2.0,16.0,34,0.00,,---,0.00,VWS V14.00,2013-03-14 17:28:00,
2013-03-14 13:29:00,33.2,7.9,29.66,NNW,345,0.0,16.0,34,0.00,,---,0.00,VWS V14.00,2013-03-14 17:29:00,
2013-03-14 13:30:00,33.2,8.5,29.66,NNW,338,1.0,3.0,35,0.00,,---,0.00,VWS V14.00,2013-03-14 17:30:00,
2013-03-14 13:31:00,33.2,9.1,29.66,NNW,330,13.0,13.0,36,0.00,,---,0.00,VWS V14.00,2013-03-14 17:31:00,
2013-03-14 13:33:00,33.2,7.9,29.66,NW,311,2.0,13.0,34,0.00,,---,0.00,VWS V14.00,2013-03-14 17:33:00,
2013-03-14 13:34:00,33.2,7.9,29.66,NW,311,0.0,13.0,34,0.00,,---,0.00,VWS V14.00,2013-03-14 17:34:00,
2013-03-14 13:35:00,33.4,8.7,29.66,NNW,336,19.0,19.0,35,0.00,,---,0.00,VWS V14.00,2013-03-14 17:35:00,
2013-03-14 13:36:00,33.4,7.4,29.66,West,265,2.0,19.0,33,0.00,,---,0.00,VWS V14.00,2013-03-14 17:36:00,
2013-03-14 13:38:00,33.4,7.4,29.66,West,266,5.0,19.0,33,0.00,,---,0.00,VWS V14.00,2013-03-14 17:38:00,
2013-03-14 13:39:00,33.4,7.4,29.66,West,267,2.0,19.0,33,0.00,,---,0.00,VWS V14.00,2013-03-14 17:39:00,
2013-03-14 13:40:00,33.4,6.7,29.66,NNW,332,3.0,19.0,32,0.00,,---,0.00,VWS V14.00,2013-03-14 17:40:00,
2013-03-14 13:41:00,33.4,7.4,29.66,WNW,287,1.0,19.0,33,0.00,,---,0.00,VWS V14.00,2013-03-14 17:41:00,
2013-03-14 13:43:00,33.4,6.7,29.66,WNW,283,10.0,19.0,32,0.00,,---,0.00,VWS V14.00,2013-03-14 17:43:00,
2013-03-14 13:44:00,33.4,6.7,29.66,NNW,340,3.0,19.0,32,0.00,,---,0.00,VWS V14.00,2013-03-14 17:44:00,
2013-03-14 13:45:00,33.2,7.2,29.66,WNW,286,4.0,16.0,33,0.00,,---,0.00,VWS V14.00,2013-03-14 17:45:00,
2013-03-14 13:46:00,33.2,7.2,29.66,NNW,340,7.0,16.0,33,0.00,,---,0.00,VWS V14.00,2013-03-14 17:46:00,
2013-03-14 13:49:00,33.2,7.2,29.66,North,349,5.0,16.0,33,0.00,,---,0.00,VWS V14.00,2013-03-14 17:49:00,
2013-03-14 13:50:00,33.2,7.9,29.66,NW,320,3.0,16.0,34,0.00,,---,0.00,VWS V14.00,2013-03-14 17:50:00,
2013-03-14 13:51:00,33.2,7.2,29.66,WSW,251,4.0,16.0,33,0.00,,---,0.00,VWS V14.00,2013-03-14 17:51:00,
2013-03-14 13:54:00,33.4,8.1,29.66,West,270,3.0,16.0,34,0.00,,---,0.00,VWS V14.00,2013-03-14 17:54:00,
2013-03-14 13:55:00,33.5,7.5,29.66,WSW,257,2.0,20.0,33,0.00,,---,0.00,VWS V14.00,2013-03-14 17:55:00,
2013-03-14 13:57:00,33.4,6.7,29.66,West,275,4.0,20.0,32,0.00,,---,0.00,VWS V14.00,2013-03-14 17:57:00,
2013-03-14 13:59:00,33.4,8.1,29.65,NNW,330,2.0,20.0,34,0.00,,---,0.00,VWS V14.00,2013-03-14 17:59:00,
2013-03-14 14:00:00,32.8,8.2,29.65,North,1,2.0,15.0,35,0.00,,---,0.00,VWS V14.00,2013-03-14 18:00:00,
2013-03-14 14:01:00,33.4,7.4,29.65,WNW,303,3.0,10.0,33,0.00,,---,0.00,VWS V14.00,2013-03-14 18:01:00,
2013-03-14 14:02:00,33.2,7.9,29.65,NNW,328,0.0,10.0,34,0.00,,---,0.00,VWS V14.00,2013-03-14 18:02:00,
2013-03-14 14:04:00,33.2,7.9,29.65,WNW,292,9.0,10.0,34,0.00,,---,0.00,VWS V14.00,2013-03-14 18:04:00,
2013-03-14 14:07:00,32.9,8.3,29.65,NW,325,5.0,13.0,35,0.00,,---,0.00,VWS V14.00,2013-03-14 18:07:00,
2013-03-14 14:09:00,32.8,8.2,29.65,NNW,346,3.0,13.0,35,0.00,,---,0.00,VWS V14.00,2013-03-14 18:09:00,
2013-03-14 14:12:00,32.8,7.5,29.65,NNW,334,5.0,16.0,34,0.00,,---,0.00,VWS V14.00,2013-03-14 18:12:00,
2013-03-14 14:14:00,32.8,6.9,29.66,NNW,331,7.0,18.0,33,0.00,,---,0.00,VWS V14.00,2013-03-14 18:14:00,
2013-03-14 14:15:00,33.1,7.8,29.65,NNW,338,5.0,17.0,34,0.00,,---,0.00,VWS V14.00,2013-03-14 18:15:00,
2013-03-14 14:17:00,32.7,6.8,29.66,North,351,9.0,13.0,33,0.00,,---,0.00,VWS V14.00,2013-03-14 18:17:00,
2013-03-14 14:19:00,32.5,6.6,29.66,NW,306,1.0,13.0,33,0.00,,---,0.00,VWS V14.00,2013-03-14 18:19:00,
2013-03-14 14:22:00,32.8,8.2,29.66,WNW,282,5.0,13.0,35,0.00,,---,0.00,VWS V14.00,2013-03-14 18:22:00,
2013-03-14 14:23:00,32.8,8.2,29.66,WNW,288,3.0,13.0,35,0.00,,---,0.00,VWS V14.00,2013-03-14 18:23:00,
2013-03-14 14:24:00,32.9,8.3,29.66,NNW,328,4.0,13.0,35,0.00,,---,0.00,VWS V14.00,2013-03-14 18:24:00,
2013-03-14 14:27:00,32.7,7.4,29.66,NW,322,3.0,14.0,34,0.00,,---,0.00,VWS V14.00,2013-03-14 18:27:00,
2013-03-14 14:28:00,32.7,7.4,29.66,NW,322,2.0,14.0,34,0.00,,---,0.00,VWS V14.00,2013-03-14 18:28:00,
2013-03-14 14:29:00,32.5,7.9,29.65,NNW,346,5.0,5.0,35,0.00,,---,0.00,VWS V14.00,2013-03-14 18:29:00,
2013-03-14 14:30:00,33.2,8.5,29.64,West,270,4.0,14.0,35,0.00,,---,0.00,VWS V14.00,2013-03-14 18:30:00,
2013-03-14 14:33:00,32.5,7.9,29.65,NW,305,2.0,17.0,35,0.00,,---,0.00,VWS V14.00,2013-03-14 18:33:00,
2013-03-14 14:34:00,32.5,7.9,29.65,NNW,338,6.0,17.0,35,0.00,,---,0.00,VWS V14.00,2013-03-14 18:34:00,
2013-03-14 14:35:00,32.5,7.9,29.65,NNW,340,3.0,17.0,35,0.00,,---,0.00,VWS V14.00,2013-03-14 18:35:00,
2013-03-14 14:38:00,32.5,7.9,29.65,WSW,258,5.0,17.0,35,0.00,,---,0.00,VWS V14.00,2013-03-14 18:38:00,
2013-03-14 14:40:00,32.7,8.1,29.65,WNW,301,0.0,17.0,35,0.00,,---,0.00,VWS V14.00,2013-03-14 18:40:00,
2013-03-14 14:43:00,33.1,9.7,29.65,WSW,252,2.0,17.0,37,0.00,,---,0.00,VWS V14.00,2013-03-14 18:43:00,
2013-03-14 14:44:00,33.2,9.1,29.65,NW,304,3.0,17.0,36,0.00,,---,0.00,VWS V14.00,2013-03-14 18:44:00,
2013-03-14 14:45:00,33.4,8.7,29.65,WNW,285,3.0,9.0,35,0.00,,---,0.00,VWS V14.00,2013-03-14 18:45:00,
2013-03-14 14:48:00,33.4,8.7,29.65,North,359,6.0,11.0,35,0.00,,---,0.00,VWS V14.00,2013-03-14 18:48:00,
2013-03-14 14:49:00,33.4,8.7,29.65,NNW,328,5.0,12.0,35,0.00,,---,0.00,VWS V14.00,2013-03-14 18:49:00,
2013-03-14 14:50:00,33.2,7.9,29.65,NW,317,7.0,12.0,34,0.00,,---,0.00,VWS V14.00,2013-03-14 18:50:00,
2013-03-14 14:53:00,32.8,8.2,29.65,NNW,328,6.0,12.0,35,0.00,,---,0.00,VWS V14.00,2013-03-14 18:53:00,
2013-03-14 14:54:00,32.8,8.2,29.65,NW,314,3.0,12.0,35,0.00,,---,0.00,VWS V14.00,2013-03-14 18:54:00,
2013-03-14 14:55:00,32.7,8.1,29.65,North,349,10.0,14.0,35,0.00,,---,0.00,VWS V14.00,2013-03-14 18:55:00,
2013-03-14 14:58:00,32.8,9.4,29.65,NW,324,3.0,14.0,37,0.00,,---,0.00,VWS V14.00,2013-03-14 18:58:00,
2013-03-14 14:59:00,32.8,8.2,29.65,WNW,294,7.0,14.0,35,0.00,,---,0.00,VWS V14.00,2013-03-14 18:59:00,
2013-03-14 15:00:00,32.8,8.8,29.65,WSW,258,13.0,13.0,36,0.00,,---,0.00,VWS V14.00,2013-03-14 19:00:00,
2013-03-14 15:01:00,32.8,8.2,29.65,NW,318,5.0,13.0,35,0.00,,---,0.00,VWS V14.00,2013-03-14 19:01:00,
2013-03-14 15:03:00,32.8,8.8,29.65,NW,305,2.0,17.0,36,0.00,,---,0.00,VWS V14.00,2013-03-14 19:03:00,
2013-03-14 15:04:00,32.8,8.2,29.65,NNW,330,5.0,17.0,35,0.00,,---,0.00,VWS V14.00,2013-03-14 19:04:00,
2013-03-14 15:05:00,32.9,9.5,29.65,WSW,255,5.0,17.0,37,0.00,,---,0.00,VWS V14.00,2013-03-14 19:05:00,
2013-03-14 15:06:00,32.9,9.5,29.65,NNW,347,7.0,17.0,37,0.00,,---,0.00,VWS V14.00,2013-03-14 19:06:00,
2013-03-14 15:08:00,32.9,8.3,29.65,SSW,208,1.0,17.0,35,0.00,,---,0.00,VWS V14.00,2013-03-14 19:08:00,
2013-03-14 15:09:00,32.9,8.9,29.65,NNW,330,1.0,17.0,36,0.00,,---,0.00,VWS V14.00,2013-03-14 19:09:00,
2013-03-14 15:11:00,33.1,8.4,29.65,NNW,336,4.0,17.0,35,0.00,,---,0.00,VWS V14.00,2013-03-14 19:11:00,
2013-03-14 15:12:00,33.1,8.4,29.65,NNW,328,5.0,17.0,35,0.00,,---,0.00,VWS V14.00,2013-03-14 19:12:00,
2013-03-14 15:14:00,33.1,8.4,29.65,NNW,343,5.0,17.0,35,0.00,,---,0.00,VWS V14.00,2013-03-14 19:14:00,
2013-03-14 15:15:00,32.7,8.7,29.65,WNW,295,1.0,16.0,36,0.00,,---,0.00,VWS V14.00,2013-03-14 19:15:00,
2013-03-14 15:16:00,33.1,7.8,29.65,NNW,336,3.0,6.0,34,0.00,,---,0.00,VWS V14.00,2013-03-14 19:16:00,
2013-03-14 15:17:00,32.9,7.6,29.65,NW,322,4.0,13.0,34,0.00,,---,0.00,VWS V14.00,2013-03-14 19:17:00,
2013-03-14 15:19:00,33.1,8.4,29.65,WNW,293,3.0,13.0,35,0.00,,---,0.00,VWS V14.00,2013-03-14 19:19:00,
2013-03-14 15:21:00,33.1,9.1,29.65,NW,323,4.0,13.0,36,0.00,,---,0.00,VWS V14.00,2013-03-14 19:21:00,
2013-03-14 15:23:00,33.2,8.5,29.65,North,0,5.0,14.0,35,0.00,,---,0.00,VWS V14.00,2013-03-14 19:23:00,
2013-03-14 15:24:00,33.2,8.5,29.65,NNW,334,2.0,14.0,35,0.00,,---,0.00,VWS V14.00,2013-03-14 19:24:00,
2013-03-14 15:27:00,33.2,8.5,29.65,North,349,6.0,14.0,35,0.00,,---,0.00,VWS V14.00,2013-03-14 19:27:00,
2013-03-14 15:28:00,33.2,8.5,29.65,North,359,6.0,14.0,35,0.00,,---,0.00,VWS V14.00,2013-03-14 19:28:00,
2013-03-14 15:29:00,33.2,8.5,29.64,WSW,256,2.0,14.0,35,0.00,,---,0.00,VWS V14.00,2013-03-14 19:29:00,
2013-03-14 15:30:00,32.7,8.7,29.65,NNW,328,4.0,14.0,36,0.00,,---,0.00,VWS V14.00,2013-03-14 19:30:00,
2013-03-14 15:33:00,33.5,9.4,29.64,NW,316,6.0,7.0,36,0.00,,---,0.00,VWS V14.00,2013-03-14 19:33:00,
2013-03-14 15:34:00,33.8,9.1,29.64,WNW,283,2.0,13.0,35,0.00,,---,0.00,VWS V14.00,2013-03-14 19:34:00,
2013-03-14 15:38:00,33.8,9.1,29.64,West,264,7.0,15.0,35,0.00,,---,0.00,VWS V14.00,2013-03-14 19:38:00,
2013-03-14 15:39:00,33.7,9.6,29.64,West,259,12.0,15.0,36,0.00,,---,0.00,VWS V14.00,2013-03-14 19:39:00,
2013-03-14 15:43:00,33.2,9.1,29.64,NW,326,5.0,15.0,36,0.00,,---,0.00,VWS V14.00,2013-03-14 19:43:00,
2013-03-14 15:44:00,33.2,9.8,29.65,North,356,10.0,12.0,37,0.00,,---,0.00,VWS V14.00,2013-03-14 19:44:00,
2013-03-14 15:45:00,33.1,9.7,29.65,NNW,333,8.0,12.0,37,0.00,,---,0.00,VWS V14.00,2013-03-14 19:45:00,
2013-03-14 15:48:00,32.7,8.7,29.65,NW,326,5.0,14.0,36,0.00,,---,0.00,VWS V14.00,2013-03-14 19:48:00,
2013-03-14 15:49:00,32.5,9.1,29.65,NNW,345,3.0,14.0,37,0.00,,---,0.00,VWS V14.00,2013-03-14 19:49:00,
2013-03-14 15:50:00,32.5,9.1,29.65,NNW,345,3.0,14.0,37,0.00,,---,0.00,VWS V14.00,2013-03-14 19:50:00,
2013-03-14 15:53:00,32.9,8.9,29.65,West,266,14.0,14.0,36,0.00,,---,0.00,VWS V14.00,2013-03-14 19:53:00,
2013-03-14 15:54:00,32.9,8.9,29.65,North,359,7.0,14.0,36,0.00,,---,0.00,VWS V14.00,2013-03-14 19:54:00,
2013-03-14 15:55:00,32.9,9.5,29.65,NW,319,10.0,14.0,37,0.00,,---,0.00,VWS V14.00,2013-03-14 19:55:00,
2013-03-14 15:59:00,32.9,8.9,29.65,WNW,293,1.0,14.0,36,0.00,,---,0.00,VWS V14.00,2013-03-14 19:59:00,
2013-03-14 16:00:00,32.8,9.4,29.65,NW,323,5.0,7.0,37,0.00,,---,0.00,VWS V14.00,2013-03-14 20:00:00,
2013-03-14 16:04:00,32.7,9.3,29.65,North,1,2.0,16.0,37,0.00,,---,0.00,VWS V14.00,2013-03-14 20:04:00,
2013-03-14 16:05:00,32.5,9.1,29.65,NNW,345,5.0,16.0,37,0.00,,---,0.00,VWS V14.00,2013-03-14 20:05:00,
2013-03-14 16:06:00,32.5,9.1,29.65,North,359,7.0,16.0,37,0.00,,---,0.00,VWS V14.00,2013-03-14 20:06:00,
2013-03-14 16:09:00,32.4,9.6,29.65,NNW,336,2.0,16.0,38,0.00,,---,0.00,VWS V14.00,2013-03-14 20:09:00,
2013-03-14 16:10:00,32.4,9.6,29.65,North,356,1.0,16.0,38,0.00,,---,0.00,VWS V14.00,2013-03-14 20:10:00,
2013-03-14 16:11:00,32.5,9.7,29.65,North,356,0.0,16.0,38,0.00,,---,0.00,VWS V14.00,2013-03-14 20:11:00,
2013-03-14 16:14:00,32.7,8.7,29.65,NNW,331,4.0,16.0,36,0.00,,---,0.00,VWS V14.00,2013-03-14 20:14:00,
2013-03-14 16:15:00,32.7,9.3,29.65,NNW,334,4.0,7.0,37,0.00,,---,0.00,VWS V14.00,2013-03-14 20:15:00,
2013-03-14 16:16:00,32.8,9.4,29.65,WNW,298,4.0,7.0,37,0.00,,---,0.00,VWS V14.00,2013-03-14 20:16:00,
2013-03-14 16:19:00,32.7,8.7,29.65,NNW,348,12.0,12.0,36,0.00,,---,0.00,VWS V14.00,2013-03-14 20:19:00,
2013-03-14 16:20:00,32.7,8.7,29.65,North,358,0.0,12.0,36,0.00,,---,0.00,VWS V14.00,2013-03-14 20:20:00,
2013-03-14 16:21:00,32.7,9.3,29.65,North,359,2.0,12.0,37,0.00,,---,0.00,VWS V14.00,2013-03-14 20:21:00,
2013-03-14 16:24:00,32.8,9.4,29.65,NNW,337,4.0,12.0,37,0.00,,---,0.00,VWS V14.00,2013-03-14 20:24:00,
2013-03-14 16:25:00,32.7,8.1,29.65,WNW,294,1.0,12.0,35,0.00,,---,0.00,VWS V14.00,2013-03-14 20:25:00,
2013-03-14 16:26:00,32.7,8.7,29.65,WSW,244,0.0,12.0,36,0.00,,---,0.00,VWS V14.00,2013-03-14 20:26:00,
2013-03-14 16:29:00,32.7,8.7,29.65,West,269,6.0,14.0,36,0.00,,---,0.00,VWS V14.00,2013-03-14 20:29:00,
2013-03-14 16:30:00,32.7,9.3,29.65,West,266,4.0,9.0,37,0.00,,---,0.00,VWS V14.00,2013-03-14 20:30:00,
2013-03-14 16:31:00,32.7,9.3,29.65,WSW,249,9.0,9.0,37,0.00,,---,0.00,VWS V14.00,2013-03-14 20:31:00,
2013-03-14 16:34:00,32.5,9.1,29.65,South,170,3.0,13.0,37,0.00,,---,0.00,VWS V14.00,2013-03-14 20:34:00,
2013-03-14 16:35:00,32.5,9.1,29.65,NNW,338,2.0,13.0,37,0.00,,---,0.00,VWS V14.00,2013-03-14 20:35:00,
2013-03-14 16:37:00,32.7,9.3,29.65,NW,308,0.0,13.0,37,0.00,,---,0.00,VWS V14.00,2013-03-14 20:37:00,
2013-03-14 16:39:00,32.5,9.1,29.65,West,259,2.0,20.0,37,0.00,,---,0.00,VWS V14.00,2013-03-14 20:39:00,
2013-03-14 16:40:00,32.5,9.1,29.65,West,261,7.0,20.0,37,0.00,,---,0.00,VWS V14.00,2013-03-14 20:40:00,
2013-03-14 16:41:00,32.4,9.1,29.65,NNW,333,6.0,20.0,37,0.00,,---,0.00,VWS V14.00,2013-03-14 20:41:00,
2013-03-14 16:42:00,32.4,9.1,29.65,NW,307,3.0,20.0,37,0.00,,---,0.00,VWS V14.00,2013-03-14 20:42:00,
2013-03-14 16:44:00,32.2,9.5,29.65,WNW,285,5.0,5.0,38,0.00,,---,0.00,VWS V14.00,2013-03-14 20:44:00,
2013-03-14 16:45:00,32.2,9.5,29.65,WSW,251,4.0,5.0,38,0.00,,---,0.00,VWS V14.00,2013-03-14 20:45:00,
2013-03-14 16:46:00,32.1,9.4,29.65,NW,319,4.0,9.0,38,0.00,,---,0.00,VWS V14.00,2013-03-14 20:46:00,
2013-03-14 16:47:00,32.1,9.4,29.65,NW,304,3.0,9.0,38,0.00,,---,0.00,VWS V14.00,2013-03-14 20:47:00,
2013-03-14 16:49:00,32.1,9.4,29.65,North,352,7.0,10.0,38,0.00,,---,0.00,VWS V14.00,2013-03-14 20:49:00,
2013-03-14 16:50:00,32.1,9.4,29.65,NNW,338,4.0,10.0,38,0.00,,---,0.00,VWS V14.00,2013-03-14 20:50:00,
2013-03-14 16:51:00,32.1,9.4,29.65,WNW,290,3.0,11.0,38,0.00,,---,0.00,VWS V14.00,2013-03-14 20:51:00,
2013-03-14 16:52:00,32.1,9.4,29.65,WSW,255,15.0,15.0,38,0.00,,---,0.00,VWS V14.00,2013-03-14 20:52:00,
2013-03-14 16:54:00,31.9,9.2,29.65,NNW,327,4.0,15.0,38,0.00,,---,0.00,VWS V14.00,2013-03-14 20:54:00,
2013-03-14 16:55:00,31.9,8.6,29.65,WNW,289,9.0,15.0,37,0.00,,---,0.00,VWS V14.00,2013-03-14 20:55:00,
2013-03-14 16:57:00,31.8,8.5,29.65,North,358,6.0,15.0,37,0.00,,---,0.00,VWS V14.00,2013-03-14 20:57:00,
2013-03-14 17:00:00,31.6,8.9,29.66,West,262,13.0,16.0,38,0.00,,---,0.00,VWS V14.00,2013-03-14 21:00:00,
2013-03-14 17:02:00,31.5,8.8,29.66,WSW,255,2.0,17.0,38,0.00,,---,0.00,VWS V14.00,2013-03-14 21:02:00,
2013-03-14 17:03:00,31.5,8.8,29.66,West,279,5.0,17.0,38,0.00,,---,0.00,VWS V14.00,2013-03-14 21:03:00,
2013-03-14 17:05:00,31.6,8.9,29.66,WSW,255,5.0,17.0,38,0.00,,---,0.00,VWS V14.00,2013-03-14 21:05:00,
2013-03-14 17:07:00,31.6,8.9,29.66,NNW,329,9.0,17.0,38,0.00,,---,0.00,VWS V14.00,2013-03-14 21:07:00,
2013-03-14 17:08:00,31.6,8.9,29.66,WNW,299,3.0,17.0,38,0.00,,---,0.00,VWS V14.00,2013-03-14 21:08:00,
2013-03-14 17:10:00,31.6,8.3,29.66,NW,323,2.0,17.0,37,0.00,,---,0.00,VWS V14.00,2013-03-14 21:10:00,
2013-03-14 17:11:00,31.6,8.3,29.66,WNW,300,2.0,17.0,37,0.00,,---,0.00,VWS V14.00,2013-03-14 21:11:00,
2013-03-14 17:12:00,31.6,8.9,29.66,NNW,329,3.0,17.0,38,0.00,,---,0.00,VWS V14.00,2013-03-14 21:12:00,
2013-03-14 17:13:00,31.6,8.9,29.66,NNW,336,5.0,17.0,38,0.00,,---,0.00,VWS V14.00,2013-03-14 21:13:00,
2013-03-14 17:15:00,31.5,8.8,29.67,NNE,18,2.0,11.0,38,0.00,,---,0.00,VWS V14.00,2013-03-14 21:15:00,
2013-03-14 17:16:00,31.5,8.8,29.67,WSW,256,4.0,11.0,38,0.00,,---,0.00,VWS V14.00,2013-03-14 21:16:00,
2013-03-14 17:17:00,31.3,8.6,29.67,North,354,3.0,11.0,38,0.00,,---,0.00,VWS V14.00,2013-03-14 21:17:00,
2013-03-14 17:18:00,31.3,8.6,29.67,NNW,345,2.0,11.0,38,0.00,,---,0.00,VWS V14.00,2013-03-14 21:18:00,
2013-03-14 17:20:00,31.3,8.6,29.67,WNW,298,2.0,11.0,38,0.00,,---,0.00,VWS V14.00,2013-03-14 21:20:00,
2013-03-14 17:21:00,31.3,8.6,29.67,NW,316,3.0,11.0,38,0.00,,---,0.00,VWS V14.00,2013-03-14 21:21:00,
2013-03-14 17:23:00,31.3,8.6,29.67,NNW,341,3.0,11.0,38,0.00,,---,0.00,VWS V14.00,2013-03-14 21:23:00,
2013-03-14 17:24:00,31.3,8.6,29.67,WSW,255,6.0,12.0,38,0.00,,---,0.00,VWS V14.00,2013-03-14 21:24:00,
2013-03-14 17:25:00,31.2,8.6,29.67,NNW,345,12.0,12.0,38,0.00,,---,0.00,VWS V14.00,2013-03-14 21:25:00,
2013-03-14 17:26:00,31.2,8.6,29.67,North,349,4.0,12.0,38,0.00,,---,0.00,VWS V14.00,2013-03-14 21:26:00,
2013-03-14 17:28:00,31.2,9.1,29.67,NNW,342,3.0,14.0,39,0.00,,---,0.00,VWS V14.00,2013-03-14 21:28:00,
2013-03-14 17:29:00,31.2,8.6,29.67,NW,321,1.0,14.0,38,0.00,,---,0.00,VWS V14.00,2013-03-14 21:29:00,
2013-03-14 17:30:00,28.5,7.8,29.70,NNW,329,6.0,31.0,41,0.00,,---,0.00,VWS V14.00,2013-03-14 21:30:00,
2013-03-14 17:31:00,31.2,8.6,29.67,NW,326,2.0,11.0,38,0.00,,---,0.00,VWS V14.00,2013-03-14 21:31:00,
2013-03-14 17:32:00,31.2,8.6,29.67,NNW,342,5.0,11.0,38,0.00,,---,0.00,VWS V14.00,2013-03-14 21:32:00,
2013-03-14 17:33:00,31.0,8.4,29.67,NW,319,3.0,11.0,38,0.00,,---,0.00,VWS V14.00,2013-03-14 21:33:00,
2013-03-14 17:34:00,31.0,8.4,29.67,North,359,3.0,11.0,38,0.00,,---,0.00,VWS V14.00,2013-03-14 21:34:00,
2013-03-14 17:36:00,31.0,8.4,29.67,West,276,15.0,15.0,38,0.00,,---,0.00,VWS V14.00,2013-03-14 21:36:00,
2013-03-14 17:37:00,31.0,8.4,29.67,NW,317,4.0,22.0,38,0.00,,---,0.00,VWS V14.00,2013-03-14 21:37:00,
2013-03-14 17:38:00,31.0,8.4,29.67,West,264,9.0,22.0,38,0.00,,---,0.00,VWS V14.00,2013-03-14 21:38:00,
2013-03-14 17:39:00,31.0,9.0,29.67,NNW,331,5.0,22.0,39,0.00,,---,0.00,VWS V14.00,2013-03-14 21:39:00,
2013-03-14 17:41:00,31.0,9.0,29.67,WSW,244,5.0,22.0,39,0.00,,---,0.00,VWS V14.00,2013-03-14 21:41:00,
2013-03-14 17:42:00,31.0,9.0,29.67,NNW,329,6.0,22.0,39,0.00,,---,0.00,VWS V14.00,2013-03-14 21:42:00,
2013-03-14 17:43:00,31.0,11.1,29.67,WNW,292,3.0,22.0,43,0.00,,---,0.00,VWS V14.00,2013-03-14 21:43:00,
2013-03-14 17:44:00,31.0,11.1,29.67,WNW,287,1.0,1.0,43,0.00,,---,0.00,VWS V14.00,2013-03-14 21:44:00,
2013-03-14 17:45:00,27.9,7.8,29.70,WSW,241,0.0,17.0,42,0.00,,---,0.00,VWS V14.00,2013-03-14 21:45:00,
2013-03-14 17:47:00,31.0,9.0,29.67,West,281,4.0,14.0,39,0.00,,---,0.00,VWS V14.00,2013-03-14 21:47:00,
2013-03-14 17:48:00,31.0,9.0,29.67,WSW,252,7.0,14.0,39,0.00,,---,0.00,VWS V14.00,2013-03-14 21:48:00,
2013-03-14 17:49:00,31.0,9.0,29.67,NW,320,9.0,14.0,39,0.00,,---,0.00,VWS V14.00,2013-03-14 21:49:00,
2013-03-14 17:52:00,31.0,8.4,29.67,NNW,338,10.0,14.0,38,0.00,,---,0.00,VWS V14.00,2013-03-14 21:52:00,
2013-03-14 17:53:00,30.9,8.3,29.67,NW,322,2.0,15.0,38,0.00,,---,0.00,VWS V14.00,2013-03-14 21:53:00,
2013-03-14 17:54:00,30.7,8.7,29.67,WNW,303,2.0,15.0,39,0.00,,---,0.00,VWS V14.00,2013-03-14 21:54:00,
2013-03-14 17:57:00,30.7,9.2,29.67,NNW,335,2.0,15.0,40,0.00,,---,0.00,VWS V14.00,2013-03-14 21:57:00,
2013-03-14 17:58:00,30.6,8.6,29.67,NW,317,11.0,15.0,39,0.00,,---,0.00,VWS V14.00,2013-03-14 21:58:00,
2013-03-14 17:59:00,30.6,9.2,29.68,NW,309,2.0,3.0,40,0.00,,---,0.00,VWS V14.00,2013-03-14 21:59:00,
2013-03-14 18:00:00,27.8,8.2,29.71,NNW,328,3.0,16.0,43,0.00,,---,0.00,VWS V14.00,2013-03-14 22:00:00,
2013-03-14 18:02:00,30.3,8.9,29.68,NW,311,7.0,17.0,40,0.00,,---,0.00,VWS V14.00,2013-03-14 22:02:00,
2013-03-14 18:03:00,30.1,8.7,29.68,NNW,328,5.0,17.0,40,0.00,,---,0.00,VWS V14.00,2013-03-14 22:03:00,
2013-03-14 18:04:00,30.0,8.6,29.68,NNW,345,0.0,17.0,40,0.00,,---,0.00,VWS V14.00,2013-03-14 22:04:00,
2013-03-14 18:07:00,29.7,8.9,29.68,NNW,339,4.0,17.0,41,0.00,,---,0.00,VWS V14.00,2013-03-14 22:07:00,
2013-03-14 18:08:00,29.7,8.9,29.68,NW,315,2.0,17.0,41,0.00,,---,0.00,VWS V14.00,2013-03-14 22:08:00,
2013-03-14 18:09:00,29.7,8.9,29.68,NW,316,2.0,17.0,41,0.00,,---,0.00,VWS V14.00,2013-03-14 22:09:00,
2013-03-14 18:10:00,29.5,8.7,29.68,NW,316,3.0,17.0,41,0.00,,---,0.00,VWS V14.00,2013-03-14 22:10:00,
2013-03-14 18:13:00,29.4,8.1,29.68,NNW,345,7.0,17.0,40,0.00,,---,0.00,VWS V14.00,2013-03-14 22:13:00,
2013-03-14 18:14:00,29.3,8.5,29.69,NW,326,5.0,17.0,41,0.00,,---,0.00,VWS V14.00,2013-03-14 22:14:00,
2013-03-14 18:15:00,29.3,8.5,29.69,WNW,296,3.0,5.0,41,0.00,,---,0.00,VWS V14.00,2013-03-14 22:15:00,
2013-03-14 18:18:00,29.0,8.3,29.69,WSW,249,5.0,12.0,41,0.00,,---,0.00,VWS V14.00,2013-03-14 22:18:00,
2013-03-14 18:19:00,29.0,8.3,29.69,WNW,288,3.0,12.0,41,0.00,,---,0.00,VWS V14.00,2013-03-14 22:19:00,
2013-03-14 18:20:00,29.0,8.3,29.69,WNW,301,3.0,14.0,41,0.00,,---,0.00,VWS V14.00,2013-03-14 22:20:00,
2013-03-14 18:23:00,28.8,8.1,29.69,NNW,338,10.0,31.0,41,0.00,,---,0.00,VWS V14.00,2013-03-14 22:23:00,
2013-03-14 18:24:00,28.7,8.0,29.69,NW,315,3.0,31.0,41,0.00,,---,0.00,VWS V14.00,2013-03-14 22:24:00,
2013-03-14 18:25:00,28.7,8.0,29.69,West,261,8.0,31.0,41,0.00,,---,0.00,VWS V14.00,2013-03-14 22:25:00,
2013-03-14 18:28:00,28.5,7.8,29.69,WNW,288,1.0,31.0,41,0.00,,---,0.00,VWS V14.00,2013-03-14 22:28:00,
2013-03-14 18:30:00,28.4,7.7,29.70,NNW,327,7.0,7.0,41,0.00,,---,0.00,VWS V14.00,2013-03-14 22:30:00,
2013-03-14 18:33:00,28.4,7.7,29.70,NW,321,4.0,13.0,41,0.00,,---,0.00,VWS V14.00,2013-03-14 22:33:00,
2013-03-14 18:34:00,28.2,7.5,29.70,WNW,301,13.0,16.0,41,0.00,,---,0.00,VWS V14.00,2013-03-14 22:34:00,
2013-03-14 18:35:00,28.2,7.5,29.70,NW,326,4.0,16.0,41,0.00,,---,0.00,VWS V14.00,2013-03-14 22:35:00,
2013-03-14 18:38:00,28.1,7.4,29.70,NW,318,2.0,17.0,41,0.00,,---,0.00,VWS V14.00,2013-03-14 22:38:00,
2013-03-14 18:39:00,28.1,7.4,29.70,West,264,3.0,17.0,41,0.00,,---,0.00,VWS V14.00,2013-03-14 22:39:00,
2013-03-14 18:40:00,28.1,7.4,29.70,West,271,0.0,17.0,41,0.00,,---,0.00,VWS V14.00,2013-03-14 22:40:00,
2013-03-14 18:44:00,27.9,7.3,29.70,WSW,245,7.0,17.0,41,0.00,,---,0.00,VWS V14.00,2013-03-14 22:44:00,
2013-03-14 18:45:00,27.9,7.8,29.70,NNW,330,6.0,7.0,42,0.00,,---,0.00,VWS V14.00,2013-03-14 22:45:00,
2013-03-14 18:49:00,27.9,7.8,29.70,NW,325,4.0,13.0,42,0.00,,---,0.00,VWS V14.00,2013-03-14 22:49:00,
2013-03-14 18:50:00,27.9,7.8,29.70,WNW,293,3.0,13.0,42,0.00,,---,0.00,VWS V14.00,2013-03-14 22:50:00,
2013-03-14 18:51:00,27.8,7.7,29.70,WNW,287,4.0,13.0,42,0.00,,---,0.00,VWS V14.00,2013-03-14 22:51:00,
2013-03-14 18:54:00,27.8,7.7,29.70,West,276,1.0,13.0,42,0.00,,---,0.00,VWS V14.00,2013-03-14 22:54:00,
2013-03-14 18:55:00,27.8,8.2,29.70,NNW,332,2.0,13.0,43,0.00,,---,0.00,VWS V14.00,2013-03-14 22:55:00,
2013-03-14 18:56:00,27.8,8.2,29.70,West,274,3.0,13.0,43,0.00,,---,0.00,VWS V14.00,2013-03-14 22:56:00,
2013-03-14 18:59:00,27.8,8.2,29.71,NNW,338,13.0,15.0,43,0.00,,---,0.00,VWS V14.00,2013-03-14 22:59:00,
2013-03-14 19:00:00,27.8,8.2,29.71,West,266,4.0,6.0,43,0.00,,---,0.00,VWS V14.00,2013-03-14 23:00:00,
2013-03-14 19:01:00,27.8,8.2,29.71,NNW,330,2.0,6.0,43,0.00,,---,0.00,VWS V14.00,2013-03-14 23:01:00,
2013-03-14 19:04:00,27.6,8.0,29.71,WNW,299,3.0,9.0,43,0.00,,---,0.00,VWS V14.00,2013-03-14 23:04:00,
2013-03-14 19:05:00,27.6,8.0,29.71,NW,305,2.0,9.0,43,0.00,,---,0.00,VWS V14.00,2013-03-14 23:05:00,
2013-03-14 19:06:00,27.6,8.0,29.71,North,352,6.0,10.0,43,0.00,,---,0.00,VWS V14.00,2013-03-14 23:06:00,
2013-03-14 19:09:00,27.6,7.5,29.71,North,359,9.0,13.0,42,0.00,,---,0.00,VWS V14.00,2013-03-14 23:09:00,
2013-03-14 19:11:00,27.6,7.5,29.71,NNW,336,1.0,14.0,42,0.00,,---,0.00,VWS V14.00,2013-03-14 23:11:00,
2013-03-14 19:14:00,27.5,7.9,29.72,WSW,257,7.0,14.0,43,0.00,,---,0.00,VWS V14.00,2013-03-14 23:14:00,
2013-03-14 19:15:00,27.5,7.9,29.72,West,274,4.0,5.0,43,0.00,,---,0.00,VWS V14.00,2013-03-14 23:15:00,
2013-03-14 19:16:00,27.5,7.9,29.72,NW,314,3.0,5.0,43,0.00,,---,0.00,VWS V14.00,2013-03-14 23:16:00,
2013-03-14 19:19:00,27.5,7.9,29.72,NNW,340,1.0,6.0,43,0.00,,---,0.00,VWS V14.00,2013-03-14 23:19:00,
2013-03-14 19:20:00,27.5,7.9,29.72,NNW,330,0.0,6.0,43,0.00,,---,0.00,VWS V14.00,2013-03-14 23:20:00,
2013-03-14 19:21:00,27.5,7.9,29.72,WSW,252,3.0,6.0,43,0.00,,---,0.00,VWS V14.00,2013-03-14 23:21:00,
2013-03-14 19:24:00,27.3,7.8,29.72,NNW,328,1.0,9.0,43,0.00,,---,0.00,VWS V14.00,2013-03-14 23:24:00,
2013-03-14 19:25:00,27.3,7.8,29.72,North,356,4.0,9.0,43,0.00,,---,0.00,VWS V14.00,2013-03-14 23:25:00,
2013-03-14 19:26:00,27.3,7.8,29.72,North,354,2.0,9.0,43,0.00,,---,0.00,VWS V14.00,2013-03-14 23:26:00,
2013-03-14 19:27:00,27.3,8.3,29.72,NW,315,0.0,9.0,44,0.00,,---,0.00,VWS V14.00,2013-03-14 23:27:00,
2013-03-14 19:29:00,27.3,7.2,29.73,NNW,342,5.0,10.0,42,0.00,,---,0.00,VWS V14.00,2013-03-14 23:29:00,
2013-03-14 19:30:00,27.3,7.2,29.73,NNW,337,3.0,9.0,42,0.00,,---,0.00,VWS V14.00,2013-03-14 23:30:00,
2013-03-14 19:31:00,27.3,7.2,29.73,NW,326,2.0,10.0,42,0.00,,---,0.00,VWS V14.00,2013-03-14 23:31:00,
2013-03-14 19:32:00,27.3,7.2,29.73,WNW,303,3.0,10.0,42,0.00,,---,0.00,VWS V14.00,2013-03-14 23:32:00,
2013-03-14 19:34:00,27.3,7.2,29.73,NNW,334,0.0,10.0,42,0.00,,---,0.00,VWS V14.00,2013-03-14 23:34:00,
2013-03-14 19:35:00,27.3,7.2,29.73,West,266,2.0,10.0,42,0.00,,---,0.00,VWS V14.00,2013-03-14 23:35:00,
2013-03-14 19:36:00,27.3,7.2,29.73,NW,306,1.0,10.0,42,0.00,,---,0.00,VWS V14.00,2013-03-14 23:36:00,
2013-03-14 19:37:00,27.2,7.2,29.73,NNW,339,2.0,10.0,42,0.00,,---,0.00,VWS V14.00,2013-03-14 23:37:00,
2013-03-14 19:39:00,27.2,7.2,29.73,NW,309,5.0,10.0,42,0.00,,---,0.00,VWS V14.00,2013-03-14 23:39:00,
2013-03-14 19:40:00,27.2,7.2,29.73,NNW,328,4.0,10.0,42,0.00,,---,0.00,VWS V14.00,2013-03-14 23:40:00,
2013-03-14 19:42:00,27.2,7.2,29.73,West,278,2.0,10.0,42,0.00,,---,0.00,VWS V14.00,2013-03-14 23:42:00,
2013-03-14 19:44:00,27.2,6.6,29.73,NW,309,4.0,11.0,41,0.00,,---,0.00,VWS V14.00,2013-03-14 23:44:00,
2013-03-14 19:45:00,27.2,6.6,29.73,NNW,328,3.0,11.0,41,0.00,,---,0.00,VWS V14.00,2013-03-14 23:45:00,
2013-03-14 19:47:00,27.2,6.6,29.73,NNW,329,1.0,11.0,41,0.00,,---,0.00,VWS V14.00,2013-03-14 23:47:00,
2013-03-14 19:49:00,27.2,6.6,29.73,WNW,299,6.0,11.0,41,0.00,,---,0.00,VWS V14.00,2013-03-14 23:49:00,
2013-03-14 19:50:00,27.0,6.4,29.73,NW,311,3.0,11.0,41,0.00,,---,0.00,VWS V14.00,2013-03-14 23:50:00,
2013-03-14 19:52:00,27.0,6.4,29.73,NW,317,8.0,17.0,41,0.00,,---,0.00,VWS V14.00,2013-03-14 23:52:00,
2013-03-14 19:54:00,27.0,6.4,29.73,NW,310,2.0,17.0,41,0.00,,---,0.00,VWS V14.00,2013-03-14 23:54:00,
2013-03-14 19:56:00,27.0,6.4,29.73,NNW,340,2.0,17.0,41,0.00,,---,0.00,VWS V14.00,2013-03-14 23:56:00,
2013-03-14 19:57:00,27.0,6.4,29.73,NW,323,5.0,17.0,41,0.00,,---,0.00,VWS V14.00,2013-03-14 23:57:00,
2013-03-14 20:00:00,27.0,7.0,29.73,NNW,333,7.0,7.0,42,0.00,,---,0.00,VWS V14.00,2013-03-15 00:00:00,
2013-03-14 20:02:00,26.9,6.9,29.73,NW,324,13.0,16.0,42,0.00,,---,0.00,VWS V14.00,2013-03-15 00:02:00,
2013-03-14 20:05:00,26.9,6.4,29.73,NW,321,11.0,16.0,41,0.00,,---,0.00,VWS V14.00,2013-03-15 00:05:00,
2013-03-14 20:07:00,26.7,6.2,29.73,NNW,340,5.0,18.0,41,0.00,,---,0.00,VWS V14.00,2013-03-15 00:07:00,
2013-03-14 20:08:00,26.7,6.2,29.73,North,349,8.0,18.0,41,0.00,,---,0.00,VWS V14.00,2013-03-15 00:08:00,
2013-03-14 20:10:00,26.7,6.2,29.73,NNW,335,9.0,18.0,41,0.00,,---,0.00,VWS V14.00,2013-03-15 00:10:00,
2013-03-14 20:12:00,26.6,6.1,29.73,NNW,334,3.0,18.0,41,0.00,,---,0.00,VWS V14.00,2013-03-15 00:12:00,
2013-03-14 20:13:00,26.6,6.1,29.73,NW,321,6.0,18.0,41,0.00,,---,0.00,VWS V14.00,2013-03-15 00:13:00,
2013-03-14 20:15:00,26.6,6.1,29.75,North,358,6.0,13.0,41,0.00,,---,0.00,VWS V14.00,2013-03-15 00:15:00,
2013-03-14 20:17:00,26.6,6.1,29.75,NNW,331,3.0,13.0,41,0.00,,---,0.00,VWS V14.00,2013-03-15 00:17:00,
2013-03-14 20:18:00,26.6,6.1,29.75,NNW,347,11.0,13.0,41,0.00,,---,0.00,VWS V14.00,2013-03-15 00:18:00,
2013-03-14 20:20:00,26.4,5.9,29.75,NNW,343,7.0,13.0,41,0.00,,---,0.00,VWS V14.00,2013-03-15 00:20:00,
2013-03-14 20:23:00,26.4,5.9,29.75,NW,314,5.0,15.0,41,0.00,,---,0.00,VWS V14.00,2013-03-15 00:23:00,
2013-03-14 20:25:00,26.3,5.8,29.75,NW,310,4.0,15.0,41,0.00,,---,0.00,VWS V14.00,2013-03-15 00:25:00,
2013-03-14 20:28:00,26.1,5.6,29.75,NW,311,10.0,15.0,41,0.00,,---,0.00,VWS V14.00,2013-03-15 00:28:00,
2013-03-14 20:30:00,26.1,5.6,29.75,NNW,338,3.0,7.0,41,0.00,,---,0.00,VWS V14.00,2013-03-15 00:30:00,
2013-03-14 20:33:00,26.0,5.5,29.75,NNW,346,11.0,13.0,41,0.00,,---,0.00,VWS V14.00,2013-03-15 00:33:00,
2013-03-14 20:35:00,26.0,4.4,29.75,NNW,327,11.0,17.0,39,0.00,,---,0.00,VWS V14.00,2013-03-15 00:35:00,
2013-03-14 20:38:00,25.8,3.7,29.75,NNW,339,10.0,17.0,38,0.00,,---,0.00,VWS V14.00,2013-03-15 00:38:00,
2013-03-14 20:41:00,25.7,3.6,29.75,North,356,5.0,18.0,38,0.00,,---,0.00,VWS V14.00,2013-03-15 00:41:00,
2013-03-14 20:43:00,25.6,4.1,29.75,NNW,335,6.0,18.0,39,0.00,,---,0.00,VWS V14.00,2013-03-15 00:43:00,
2013-03-14 20:44:00,25.6,4.1,29.76,North,356,11.0,18.0,39,0.00,,---,0.00,VWS V14.00,2013-03-15 00:44:00,
2013-03-14 20:45:00,24.1,4.3,29.77,NNW,339,2.0,12.0,42,0.00,,---,0.00,VWS V14.00,2013-03-15 00:45:00,
2013-03-14 20:46:00,25.6,4.1,29.76,North,356,6.0,9.0,39,0.00,,---,0.00,VWS V14.00,2013-03-15 00:46:00,
2013-03-14 20:48:00,25.4,3.9,29.76,North,10,1.0,14.0,39,0.00,,---,0.00,VWS V14.00,2013-03-15 00:48:00,
2013-03-14 20:49:00,25.4,3.9,29.76,NW,321,5.0,14.0,39,0.00,,---,0.00,VWS V14.00,2013-03-15 00:49:00,
2013-03-14 20:51:00,25.4,3.9,29.76,NW,323,2.0,16.0,39,0.00,,---,0.00,VWS V14.00,2013-03-15 00:51:00,
2013-03-14 20:54:00,25.3,4.4,29.76,North,357,6.0,16.0,40,0.00,,---,0.00,VWS V14.00,2013-03-15 00:54:00,
2013-03-14 20:57:00,25.1,3.6,29.76,NNW,328,4.0,16.0,39,0.00,,---,0.00,VWS V14.00,2013-03-15 00:57:00,
2013-03-14 20:59:00,25.1,3.6,29.76,West,262,3.0,16.0,39,0.00,,---,0.00,VWS V14.00,2013-03-15 00:59:00,
2013-03-14 21:00:00,23.8,4.6,29.77,NW,323,2.0,12.0,43,0.00,,---,0.00,VWS V14.00,2013-03-15 01:00:00,
2013-03-14 21:02:00,25.0,4.1,29.76,NNW,336,6.0,13.0,40,0.00,,---,0.00,VWS V14.00,2013-03-15 01:02:00,
2013-03-14 21:04:00,25.0,3.5,29.76,NW,323,8.0,16.0,39,0.00,,---,0.00,VWS V14.00,2013-03-15 01:04:00,
2013-03-14 21:07:00,24.8,3.9,29.76,NW,307,4.0,16.0,40,0.00,,---,0.00,VWS V14.00,2013-03-15 01:07:00,
2013-03-14 21:09:00,24.7,3.8,29.76,NNW,329,4.0,16.0,40,0.00,,---,0.00,VWS V14.00,2013-03-15 01:09:00,
2013-03-14 21:12:00,24.7,3.8,29.76,NNW,342,4.0,19.0,40,0.00,,---,0.00,VWS V14.00,2013-03-15 01:12:00,
2013-03-14 21:14:00,24.5,4.2,29.76,NNW,330,3.0,19.0,41,0.00,,---,0.00,VWS V14.00,2013-03-15 01:14:00,
2013-03-14 21:15:00,23.6,4.4,29.77,NNW,332,3.0,11.0,43,0.00,,---,0.00,VWS V14.00,2013-03-15 01:15:00,
2013-03-14 21:18:00,24.5,3.7,29.76,NNW,341,3.0,15.0,40,0.00,,---,0.00,VWS V14.00,2013-03-15 01:18:00,
2013-03-14 21:19:00,24.5,5.7,29.76,NNW,335,7.0,18.0,44,0.00,,---,0.00,VWS V14.00,2013-03-15 01:19:00,
2013-03-14 21:23:00,24.4,3.6,29.76,NNW,345,5.0,18.0,40,0.00,,---,0.00,VWS V14.00,2013-03-15 01:23:00,
2013-03-14 21:24:00,24.4,4.1,29.76,NW,323,5.0,18.0,41,0.00,,---,0.00,VWS V14.00,2013-03-15 01:24:00,
2013-03-14 21:25:00,24.4,4.1,29.76,NW,318,4.0,18.0,41,0.00,,---,0.00,VWS V14.00,2013-03-15 01:25:00,
2013-03-14 21:28:00,24.4,4.1,29.76,NNW,331,6.0,18.0,41,0.00,,---,0.00,VWS V14.00,2013-03-15 01:28:00,
2013-03-14 21:29:00,24.4,4.1,29.76,NNW,338,3.0,6.0,41,0.00,,---,0.00,VWS V14.00,2013-03-15 01:29:00,
2013-03-14 21:30:00,24.4,4.6,29.76,NNW,345,9.0,9.0,42,0.00,,---,0.00,VWS V14.00,2013-03-15 01:30:00,
2013-03-14 21:33:00,24.2,4.4,29.76,NNW,334,5.0,9.0,42,0.00,,---,0.00,VWS V14.00,2013-03-15 01:33:00,
2013-03-14 21:34:00,24.2,3.9,29.76,NNW,338,4.0,12.0,41,0.00,,---,0.00,VWS V14.00,2013-03-15 01:34:00,
2013-03-14 21:35:00,24.2,3.9,29.76,NNW,329,5.0,12.0,41,0.00,,---,0.00,VWS V14.00,2013-03-15 01:35:00,
2013-03-14 21:38:00,24.2,4.4,29.76,North,1,8.0,12.0,42,0.00,,---,0.00,VWS V14.00,2013-03-15 01:38:00,
2013-03-14 21:39:00,24.2,4.4,29.76,North,359,5.0,12.0,42,0.00,,---,0.00,VWS V14.00,2013-03-15 01:39:00,
2013-03-14 21:40:00,24.1,4.3,29.76,NNW,342,4.0,12.0,42,0.00,,---,0.00,VWS V14.00,2013-03-15 01:40:00,
2013-03-14 21:43:00,24.1,4.3,29.76,NNW,344,3.0,12.0,42,0.00,,---,0.00,VWS V14.00,2013-03-15 01:43:00,
2013-03-14 21:44:00,24.1,4.8,29.77,NNW,335,6.0,6.0,43,0.00,,---,0.00,VWS V14.00,2013-03-15 01:44:00,
2013-03-14 21:45:00,24.1,4.8,29.77,NNW,340,5.0,7.0,43,0.00,,---,0.00,VWS V14.00,2013-03-15 01:45:00,
2013-03-14 21:48:00,23.9,4.7,29.77,NW,326,2.0,10.0,43,0.00,,---,0.00,VWS V14.00,2013-03-15 01:48:00,
2013-03-14 21:50:00,23.9,5.2,29.77,NW,326,3.0,10.0,44,0.00,,---,0.00,VWS V14.00,2013-03-15 01:50:00,
2013-03-14 21:54:00,23.9,4.7,29.77,NNW,330,2.0,12.0,43,0.00,,---,0.00,VWS V14.00,2013-03-15 01:54:00,
2013-03-14 21:55:00,23.9,4.7,29.77,NNW,344,3.0,12.0,43,0.00,,---,0.00,VWS V14.00,2013-03-15 01:55:00,
2013-03-14 21:59:00,23.8,4.6,29.77,NNW,340,7.0,12.0,43,0.00,,---,0.00,VWS V14.00,2013-03-15 01:59:00,
2013-03-14 22:00:00,23.8,4.6,29.77,NW,325,2.0,6.0,43,0.00,,---,0.00,VWS V14.00,2013-03-15 02:00:00,
2013-03-14 22:02:00,23.8,4.6,29.77,NW,317,10.0,10.0,43,0.00,,---,0.00,VWS V14.00,2013-03-15 02:02:00,
2013-03-14 22:04:00,23.8,4.6,29.77,NNW,328,1.0,10.0,43,0.00,,---,0.00,VWS V14.00,2013-03-15 02:04:00,
2013-03-14 22:05:00,23.8,4.6,29.77,NNW,328,11.0,11.0,43,0.00,,---,0.00,VWS V14.00,2013-03-15 02:05:00,
2013-03-14 22:06:00,23.6,4.4,29.77,NNW,343,3.0,11.0,43,0.00,,---,0.00,VWS V14.00,2013-03-15 02:06:00,
2013-03-14 22:07:00,23.6,4.4,29.77,NNW,330,4.0,11.0,43,0.00,,---,0.00,VWS V14.00,2013-03-15 02:07:00,
2013-03-14 22:09:00,23.6,4.4,29.77,NW,319,3.0,11.0,43,0.00,,---,0.00,VWS V14.00,2013-03-15 02:09:00,
2013-03-14 22:10:00,23.6,4.4,29.77,NNW,335,4.0,11.0,43,0.00,,---,0.00,VWS V14.00,2013-03-15 02:10:00,
2013-03-14 22:11:00,23.6,4.4,29.77,North,354,3.0,11.0,43,0.00,,---,0.00,VWS V14.00,2013-03-15 02:11:00,
2013-03-14 22:12:00,23.6,4.4,29.77,NNW,333,10.0,11.0,43,0.00,,---,0.00,VWS V14.00,2013-03-15 02:12:00,
2013-03-14 22:14:00,23.6,4.4,29.77,NNW,332,3.0,11.0,43,0.00,,---,0.00,VWS V14.00,2013-03-15 02:14:00,
2013-03-14 22:15:00,23.5,4.3,29.77,NNW,335,3.0,10.0,43,0.00,,---,0.00,VWS V14.00,2013-03-15 02:15:00,
2013-03-14 22:16:00,23.5,4.3,29.77,NNW,340,6.0,10.0,43,0.00,,---,0.00,VWS V14.00,2013-03-15 02:16:00,
2013-03-14 22:17:00,23.5,4.3,29.77,NNW,330,4.0,10.0,43,0.00,,---,0.00,VWS V14.00,2013-03-15 02:17:00,
2013-03-14 22:19:00,23.5,4.3,29.77,North,10,2.0,10.0,43,0.00,,---,0.00,VWS V14.00,2013-03-15 02:19:00,
2013-03-14 22:20:00,23.5,4.3,29.77,WNW,291,2.0,10.0,43,0.00,,---,0.00,VWS V14.00,2013-03-15 02:20:00,
2013-03-14 22:21:00,23.5,4.3,29.77,West,278,5.0,11.0,43,0.00,,---,0.00,VWS V14.00,2013-03-15 02:21:00,
2013-03-14 22:22:00,23.5,4.3,29.77,NNW,328,2.0,11.0,43,0.00,,---,0.00,VWS V14.00,2013-03-15 02:22:00,
2013-03-14 22:24:00,23.3,4.1,29.77,North,359,3.0,12.0,43,0.00,,---,0.00,VWS V14.00,2013-03-15 02:24:00,
2013-03-14 22:25:00,23.3,4.1,29.77,North,351,3.0,12.0,43,0.00,,---,0.00,VWS V14.00,2013-03-15 02:25:00,
2013-03-14 22:27:00,23.3,4.6,29.77,NNW,334,5.0,12.0,44,0.00,,---,0.00,VWS V14.00,2013-03-15 02:27:00,
2013-03-14 22:29:00,23.3,4.1,29.77,North,354,5.0,5.0,43,0.00,,---,0.00,VWS V14.00,2013-03-15 02:29:00,
2013-03-14 22:30:00,22.5,5.3,29.77,NNW,339,2.0,11.0,47,0.00,,---,0.00,VWS V14.00,2013-03-15 02:30:00,
2013-03-14 22:31:00,23.3,4.6,29.77,NNW,343,1.0,5.0,44,0.00,,---,0.00,VWS V14.00,2013-03-15 02:31:00,
2013-03-14 22:32:00,23.3,4.1,29.77,North,357,4.0,10.0,43,0.00,,---,0.00,VWS V14.00,2013-03-15 02:32:00,
2013-03-14 22:33:00,23.3,4.6,29.77,NNW,347,0.0,10.0,44,0.00,,---,0.00,VWS V14.00,2013-03-15 02:33:00,
2013-03-14 22:34:00,23.2,4.5,29.77,NNW,331,10.0,11.0,44,0.00,,---,0.00,VWS V14.00,2013-03-15 02:34:00,
2013-03-14 22:36:00,23.2,4.0,29.77,NW,321,4.0,12.0,43,0.00,,---,0.00,VWS V14.00,2013-03-15 02:36:00,
2013-03-14 22:37:00,23.2,4.5,29.77,NNW,331,5.0,12.0,44,0.00,,---,0.00,VWS V14.00,2013-03-15 02:37:00,
2013-03-14 22:38:00,23.2,4.0,29.77,NNW,329,5.0,12.0,43,0.00,,---,0.00,VWS V14.00,2013-03-15 02:38:00,
2013-03-14 22:39:00,23.2,4.5,29.77,NNW,339,10.0,12.0,44,0.00,,---,0.00,VWS V14.00,2013-03-15 02:39:00,
2013-03-14 22:41:00,23.2,4.5,29.77,NNW,333,3.0,12.0,44,0.00,,---,0.00,VWS V14.00,2013-03-15 02:41:00,
2013-03-14 22:42:00,23.0,4.3,29.77,NNW,330,5.0,12.0,44,0.00,,---,0.00,VWS V14.00,2013-03-15 02:42:00,
2013-03-14 22:43:00,23.0,4.3,29.77,NNW,329,5.0,12.0,44,0.00,,---,0.00,VWS V14.00,2013-03-15 02:43:00,
2013-03-14 22:44:00,23.0,4.3,29.77,NW,317,3.0,4.0,44,0.00,,---,0.00,VWS V14.00,2013-03-15 02:44:00,
2013-03-14 22:45:00,22.4,5.2,29.77,North,352,2.0,12.0,47,0.00,,---,0.00,VWS V14.00,2013-03-15 02:45:00,
2013-03-14 22:47:00,23.0,4.3,29.77,WNW,295,3.0,11.0,44,0.00,,---,0.00,VWS V14.00,2013-03-15 02:47:00,
2013-03-14 22:48:00,23.0,4.3,29.77,NNW,339,6.0,12.0,44,0.00,,---,0.00,VWS V14.00,2013-03-15 02:48:00,
2013-03-14 22:49:00,23.0,4.3,29.77,North,355,4.0,12.0,44,0.00,,---,0.00,VWS V14.00,2013-03-15 02:49:00,
2013-03-14 22:52:00,23.0,4.3,29.77,NW,306,2.0,12.0,44,0.00,,---,0.00,VWS V14.00,2013-03-15 02:52:00,
2013-03-14 22:54:00,23.0,4.3,29.77,NNW,330,1.0,12.0,44,0.00,,---,0.00,VWS V14.00,2013-03-15 02:54:00,
2013-03-14 22:57:00,22.9,4.8,29.77,NW,319,2.0,12.0,45,0.00,,---,0.00,VWS V14.00,2013-03-15 02:57:00,
2013-03-14 22:59:00,22.9,4.8,29.77,NNW,340,4.0,12.0,45,0.00,,---,0.00,VWS V14.00,2013-03-15 02:59:00,
2013-03-14 23:00:00,22.9,4.8,29.77,WNW,287,3.0,3.0,45,0.00,,---,0.00,VWS V14.00,2013-03-15 03:00:00,
2013-03-14 23:01:00,22.2,5.1,29.77,NNW,329,5.0,5.0,47,0.00,,---,0.00,VWS V14.00,2013-03-15 03:01:00,
2013-03-14 23:02:00,22.9,4.8,29.77,NW,319,3.0,6.0,45,0.00,,---,0.00,VWS V14.00,2013-03-15 03:02:00,
2013-03-14 23:03:00,22.1,5.0,29.77,NW,323,2.0,10.0,47,0.00,,---,0.00,VWS V14.00,2013-03-15 03:03:00,
2013-03-14 23:04:00,22.9,4.8,29.77,NNW,333,3.0,6.0,45,0.00,,---,0.00,VWS V14.00,2013-03-15 03:04:00,
2013-03-14 23:05:00,22.9,4.8,29.77,NNW,344,3.0,6.0,45,0.00,,---,0.00,VWS V14.00,2013-03-15 03:05:00,
2013-03-14 23:07:00,22.9,4.8,29.77,NNW,342,9.0,11.0,45,0.00,,---,0.00,VWS V14.00,2013-03-15 03:07:00,
2013-03-14 23:09:00,22.7,4.6,29.77,North,354,6.0,11.0,45,0.00,,---,0.00,VWS V14.00,2013-03-15 03:09:00,
2013-03-14 23:10:00,22.7,5.0,29.77,North,0,1.0,11.0,46,0.00,,---,0.00,VWS V14.00,2013-03-15 03:10:00,
2013-03-14 23:12:00,22.7,5.0,29.77,NNW,343,3.0,11.0,46,0.00,,---,0.00,VWS V14.00,2013-03-15 03:12:00,
2013-03-14 23:13:00,22.7,5.0,29.77,NNW,345,2.0,11.0,46,0.00,,---,0.00,VWS V14.00,2013-03-15 03:13:00,
2013-03-14 23:14:00,22.7,5.0,29.78,NW,321,2.0,11.0,46,0.00,,---,0.00,VWS V14.00,2013-03-15 03:14:00,
2013-03-14 23:15:00,22.7,5.0,29.78,NNW,328,2.0,3.0,46,0.00,,---,0.00,VWS V14.00,2013-03-15 03:15:00,
2013-03-14 23:18:00,22.7,4.6,29.78,NNW,335,3.0,7.0,45,0.00,,---,0.00,VWS V14.00,2013-03-15 03:18:00,
2013-03-14 23:19:00,22.7,4.6,29.78,NW,321,3.0,7.0,45,0.00,,---,0.00,VWS V14.00,2013-03-15 03:19:00,
2013-03-14 23:20:00,22.7,4.6,29.78,NNW,330,6.0,7.0,45,0.00,,---,0.00,VWS V14.00,2013-03-15 03:20:00,
2013-03-14 23:23:00,22.5,4.9,29.78,NNW,340,10.0,11.0,46,0.00,,---,0.00,VWS V14.00,2013-03-15 03:23:00,
2013-03-14 23:24:00,22.5,4.9,29.78,NNW,344,2.0,11.0,46,0.00,,---,0.00,VWS V14.00,2013-03-15 03:24:00,
2013-03-14 23:25:00,22.5,4.9,29.78,NNW,333,3.0,11.0,46,0.00,,---,0.00,VWS V14.00,2013-03-15 03:25:00,
2013-03-14 23:28:00,22.5,4.9,29.78,NNW,337,2.0,11.0,46,0.00,,---,0.00,VWS V14.00,2013-03-15 03:28:00,
2013-03-14 23:29:00,22.5,5.3,29.77,NNW,339,2.0,11.0,47,0.00,,---,0.00,VWS V14.00,2013-03-15 03:29:00,
2013-03-14 23:30:00,22.5,5.3,29.77,NNW,333,9.0,11.0,47,0.00,,---,0.00,VWS V14.00,2013-03-15 03:30:00,
2013-03-14 23:33:00,22.5,4.9,29.77,NNW,341,0.0,11.0,46,0.00,,---,0.00,VWS V14.00,2013-03-15 03:33:00,
2013-03-14 23:34:00,22.4,5.2,29.77,NW,326,0.0,11.0,47,0.00,,---,0.00,VWS V14.00,2013-03-15 03:34:00,
2013-03-14 23:35:00,22.4,5.2,29.77,North,359,7.0,11.0,47,0.00,,---,0.00,VWS V14.00,2013-03-15 03:35:00,
2013-03-14 23:38:00,22.4,5.2,29.77,NNW,335,4.0,11.0,47,0.00,,---,0.00,VWS V14.00,2013-03-15 03:38:00,
2013-03-14 23:39:00,22.4,5.2,29.77,NW,324,4.0,11.0,47,0.00,,---,0.00,VWS V14.00,2013-03-15 03:39:00,
2013-03-14 23:41:00,22.4,5.2,29.77,NNW,344,3.0,11.0,47,0.00,,---,0.00,VWS V14.00,2013-03-15 03:41:00,
2013-03-14 23:43:00,22.4,5.2,29.77,NNW,327,3.0,11.0,47,0.00,,---,0.00,VWS V14.00,2013-03-15 03:43:00,
2013-03-14 23:44:00,22.4,5.2,29.77,NW,323,2.0,3.0,47,0.00,,---,0.00,VWS V14.00,2013-03-15 03:44:00,
2013-03-14 23:45:00,21.9,4.8,29.77,NNW,340,9.0,14.0,47,0.00,,---,0.00,VWS V14.00,2013-03-15 03:45:00,
2013-03-14 23:47:00,22.4,5.2,29.77,NNW,348,3.0,10.0,47,0.00,,---,0.00,VWS V14.00,2013-03-15 03:47:00,
2013-03-14 23:48:00,22.2,5.1,29.77,NW,323,2.0,10.0,47,0.00,,---,0.00,VWS V14.00,2013-03-15 03:48:00,
2013-03-14 23:50:00,22.2,5.1,29.77,NNW,334,5.0,10.0,47,0.00,,---,0.00,VWS V14.00,2013-03-15 03:50:00,
2013-03-14 23:52:00,22.2,5.1,29.77,NNW,335,5.0,10.0,47,0.00,,---,0.00,VWS V14.00,2013-03-15 03:52:00,
2013-03-14 23:53:00,22.2,5.1,29.77,NW,308,5.0,10.0,47,0.00,,---,0.00,VWS V14.00,2013-03-15 03:53:00,
2013-03-14 23:55:00,22.2,5.1,29.77,NNW,338,6.0,10.0,47,0.00,,---,0.00,VWS V14.00,2013-03-15 03:55:00,
2013-03-14 23:57:00,22.2,5.1,29.77,WNW,288,2.0,10.0,47,0.00,,---,0.00,VWS V14.00,2013-03-15 03:57:00,
2013-03-14 23:58:00,22.2,5.1,29.77,NNW,339,3.0,10.0,47,0.00,,---,0.00,VWS V14.00,2013-03-15 03:58:00,